HIGHLAND LAKE: From 10/10/2019 00:00 to 12/11/2019 00:00

Date LAKE ELEVATION [FT] OBSERVED RELEASE PRECIPITATION INCREMENT [IN] PRECIPITATION TOTAL [IN] AIR TEMPERATURE [F] RELATIVE HUMIDITY [%]
12/09/2019 10:00 1291.97 80.0 0.06 -- 35.8 100.0
12/09/2019 09:00 1291.97 80.0 0.00 -- 33.6 100.0
12/09/2019 08:00 1291.97 80.0 0.00 -- 33.1 99.0
12/09/2019 07:00 1291.98 80.0 0.00 -- 33.9 99.0
12/09/2019 06:00 1291.99 81.0 0.00 -- 34.8 98.0
12/09/2019 05:00 1291.99 81.0 0.00 -- 34.9 88.0
12/09/2019 04:00 1291.99 81.0 0.00 -- 34.1 88.0
12/09/2019 03:00 1291.99 81.0 0.00 -- 33.3 91.0
12/09/2019 02:00 1292.00 82.0 0.00 -- 32.4 93.0
12/09/2019 01:00 1292.00 81.0 0.00 -- 31.7 89.0
12/09/2019 00:00 1292.01 82.0 0.00 -- 30.2 88.0
12/08/2019 23:00 1292.02 82.0 0.00 -- 28.0 86.0
12/08/2019 22:00 1292.02 82.0 0.00 -- 26.9 84.0
12/08/2019 21:00 1292.02 83.0 0.00 -- 25.9 77.0
12/08/2019 20:00 1292.01 83.0 0.00 -- 24.7 71.0
12/08/2019 19:00 1292.02 83.0 0.00 -- 24.1 64.0
12/08/2019 18:00 1292.03 83.0 0.00 -- 23.5 55.0
12/08/2019 17:00 1292.04 84.0 0.00 -- 23.4 54.0
12/08/2019 16:00 1292.04 84.0 0.00 -- 24.8 49.0
12/08/2019 15:00 1292.05 85.0 0.00 -- 26.5 38.0
12/08/2019 14:00 1292.06 85.0 0.00 -- 27.9 32.0
12/08/2019 13:00 1292.06 85.0 0.00 -- 28.7 30.0
12/08/2019 12:00 1292.07 85.0 0.00 -- 25.2 39.0
12/08/2019 11:00 1292.07 86.0 0.00 -- 20.3 52.0
12/08/2019 10:00 1292.07 86.0 0.00 -- 16.2 71.0
12/08/2019 09:00 1292.08 86.0 0.00 -- 4.9 84.0
12/08/2019 08:00 1292.09 87.0 0.00 -- 0.4 82.0
12/08/2019 07:00 1292.10 87.0 0.00 -- 0.5 83.0
12/08/2019 06:00 1292.10 87.0 0.00 -- 1.5 83.0
12/08/2019 05:00 1292.10 88.0 0.00 -- 0.8 83.0
12/08/2019 04:00 1292.11 88.0 0.00 -- -0.9 81.0
12/08/2019 03:00 1292.11 88.0 0.00 -- -0.4 82.0
12/08/2019 02:00 1292.12 89.0 0.00 -- 2.1 84.0
12/08/2019 01:00 1292.12 89.0 0.00 -- 2.3 85.0
12/08/2019 00:00 1292.10 89.0 0.00 -- 0.8 87.0
12/07/2019 23:00 1292.11 88.0 0.00 -- -0.9 88.0
12/07/2019 22:00 1292.11 88.0 0.00 -- -0.4 86.0
12/07/2019 21:00 1292.12 89.0 0.00 -- 2.1 85.0
12/07/2019 20:00 1292.12 89.0 0.00 -- 2.3 87.0
12/07/2019 19:00 1292.14 89.0 0.00 -- 4.0 90.0
12/07/2019 18:00 1292.13 90.0 0.00 -- 4.2 87.0
12/07/2019 17:00 1292.14 90.0 0.00 -- 4.1 81.0
12/07/2019 16:00 1292.15 91.0 0.00 -- 4.7 68.0
12/07/2019 15:00 1292.15 91.0 0.00 -- 6.8 60.0
12/07/2019 14:00 1292.16 91.0 0.00 -- 9.1 58.0
12/07/2019 13:00 1292.16 91.0 0.00 -- 10.9 58.0
12/07/2019 12:00 1292.17 92.0 0.00 -- 15.2 59.0
12/07/2019 11:00 1292.17 92.0 0.00 -- 19.8 65.0
12/07/2019 10:00 1292.18 92.0 0.00 -- 21.0 72.0
12/07/2019 09:00 1292.18 93.0 0.00 -- 23.2 80.0
12/07/2019 08:00 1292.19 93.0 0.00 -- 23.7 86.0
12/07/2019 07:00 1292.20 93.0 0.00 -- 23.8 88.0
12/07/2019 06:00 1292.20 93.0 0.00 -- 20.7 89.0
12/07/2019 05:00 1292.20 94.0 0.00 -- 18.9 89.0
12/07/2019 04:00 1292.21 95.0 0.00 -- 15.8 86.0
12/07/2019 03:00 1292.22 95.0 0.00 -- 6.8 80.0
12/07/2019 02:00 1292.22 95.0 0.00 -- 7.3 82.0
12/07/2019 01:00 1292.23 96.0 0.00 -- 9.3 88.0
12/07/2019 00:00 1292.23 96.0 0.00 0.00 11.7 91.0
12/06/2019 23:00 1292.24 96.0 0.00 -- 15.4 95.0
12/06/2019 22:00 1292.24 96.0 0.00 -- 19.2 98.0
12/06/2019 21:00 1292.25 97.0 0.00 -- 20.4 98.0
12/06/2019 20:00 1292.26 97.0 0.00 -- 22.2 99.0
12/06/2019 19:00 1292.26 98.0 0.00 -- 23.3 99.0
12/06/2019 18:00 1292.27 98.0 0.00 -- 23.2 99.0
12/06/2019 17:00 1292.28 99.0 0.00 -- 22.9 99.0
12/06/2019 16:00 1292.28 99.0 0.00 -- 23.5 99.0
12/06/2019 15:00 1292.29 99.0 0.00 -- 24.2 99.0
12/06/2019 14:00 1292.29 99.0 0.00 -- 24.0 97.0
12/06/2019 13:00 1292.29 100.0 0.00 -- 24.1 92.0
12/06/2019 12:00 1292.29 100.0 0.00 -- 24.2 85.0
12/06/2019 11:00 1292.30 100.0 0.00 -- 24.1 72.0
12/06/2019 10:00 1292.30 100.0 0.00 -- 24.2 66.0
12/06/2019 09:00 1292.31 101.0 0.00 -- 24.1 64.0
12/06/2019 08:00 1292.31 101.0 0.00 -- 23.7 68.0
12/06/2019 07:00 1292.31 101.0 0.00 -- 23.6 72.0
12/06/2019 06:00 1292.32 101.0 0.00 -- 23.4 83.0
12/06/2019 05:00 1292.32 101.0 0.00 -- 23.0 78.0
12/06/2019 04:00 1292.33 102.0 0.00 -- 22.1 70.0
12/06/2019 03:00 1292.34 102.0 0.00 -- 20.5 69.0
12/06/2019 02:00 1292.34 103.0 0.00 -- 18.4 67.0
12/06/2019 01:00 1292.35 104.0 0.00 -- 15.5 67.0
12/06/2019 00:00 1292.35 104.0 0.00 0.00 16.3 68.0
12/05/2019 23:00 1292.37 104.0 0.00 -- 19.7 65.0
12/05/2019 22:00 1292.37 104.0 0.00 -- 19.8 62.0
12/05/2019 21:00 1292.37 105.0 0.00 -- 20.1 62.0
12/05/2019 20:00 1292.39 105.0 0.00 -- 20.7 58.0
12/05/2019 19:00 1292.39 106.0 0.00 -- 20.6 59.0
12/05/2019 18:00 1292.39 106.0 0.00 -- 21.0 59.0
12/05/2019 17:00 1292.39 106.0 0.00 -- 21.3 55.0
12/05/2019 16:00 1292.41 107.0 0.00 -- 22.8 58.0
12/05/2019 15:00 1292.41 107.0 0.00 -- 24.3 68.0
12/05/2019 14:00 1292.42 109.0 0.00 -- 26.3 70.0
12/05/2019 13:00 1292.43 108.0 0.00 -- 27.3 67.0
12/05/2019 12:00 1292.43 108.0 0.00 -- 28.6 69.0
12/05/2019 11:00 1292.44 109.0 0.00 -- 29.0 72.0
12/05/2019 10:00 1292.44 110.0 0.00 -- 29.6 78.0
12/05/2019 09:00 1292.45 110.0 0.00 -- 31.6 99.0
12/05/2019 08:00 1292.46 110.0 0.00 -- 32.4 99.0
12/05/2019 07:00 1292.46 111.0 0.00 -- 32.7 99.0
12/05/2019 06:00 1292.48 111.0 0.00 -- 33.3 99.0
12/05/2019 05:00 1292.48 112.0 0.00 -- 31.6 99.0
12/05/2019 04:00 1292.48 112.0 0.00 -- 28.7 99.0
12/05/2019 03:00 1292.48 112.0 0.00 -- 26.9 99.0
12/05/2019 02:00 1292.49 112.0 0.00 -- 23.7 99.0
12/05/2019 01:00 1292.49 112.0 0.00 -- 20.7 99.0
12/05/2019 00:00 1292.50 113.0 0.00 0.00 20.1 99.0
12/04/2019 23:00 1292.51 113.0 0.00 -- 22.4 97.0
12/04/2019 22:00 1292.51 114.0 0.00 -- 25.1 95.0
12/04/2019 21:00 1292.52 114.0 0.00 -- 26.5 92.0
12/04/2019 20:00 1292.53 115.0 0.00 -- 26.2 91.0
12/04/2019 19:00 1292.54 115.0 0.00 -- 25.9 86.0
12/04/2019 18:00 1292.57 118.0 0.00 -- 29.0 86.0
12/04/2019 17:00 1292.58 118.0 0.00 -- 29.8 79.0
12/04/2019 16:00 1292.58 119.0 0.00 -- 30.8 77.0
12/04/2019 15:00 1292.60 119.0 0.00 -- 32.0 70.0
12/04/2019 14:00 1292.60 119.0 0.00 -- 32.7 70.0
12/04/2019 13:00 1292.61 120.0 0.00 -- 32.4 69.0
12/04/2019 12:00 1292.61 120.0 0.00 -- 32.8 67.0
12/04/2019 11:00 1292.61 121.0 0.00 -- 29.0 73.0
12/04/2019 10:00 1292.62 121.0 0.00 -- 27.2 67.0
12/04/2019 09:00 1292.63 121.0 0.00 -- 24.9 72.0
12/04/2019 08:00 1292.63 122.0 0.00 -- 22.6 72.0
12/04/2019 07:00 1292.64 122.0 0.00 -- 22.8 68.0
12/04/2019 06:00 1292.65 122.0 0.00 -- 22.4 73.0
12/04/2019 05:00 1292.65 123.0 0.00 -- 20.6 72.0
12/04/2019 04:00 1292.66 123.0 0.00 -- 20.2 71.0
12/04/2019 03:00 1292.67 124.0 0.00 -- 19.9 76.0
12/04/2019 02:00 1292.68 124.0 0.00 -- 19.2 78.0
12/04/2019 01:00 1292.68 125.0 0.00 -- 19.9 76.0
12/04/2019 00:00 1292.68 126.0 0.00 0.00 16.8 89.0
12/03/2019 23:00 1292.69 126.0 0.00 -- 16.6 88.0
12/03/2019 22:00 1292.70 126.0 0.00 -- 19.0 80.0
12/03/2019 21:00 1292.71 127.0 0.00 -- 18.9 82.0
12/03/2019 20:00 1292.71 127.0 0.00 -- 18.6 83.0
12/03/2019 19:00 1292.72 128.0 0.00 -- 20.9 79.0
12/03/2019 18:00 1292.72 128.0 0.00 -- 23.3 71.0
12/03/2019 17:00 1292.73 128.0 0.00 -- 24.7 67.0
12/03/2019 16:00 1292.74 129.0 0.00 -- 26.1 67.0
12/03/2019 15:00 1292.74 129.0 0.00 -- 27.9 60.0
12/03/2019 14:00 1292.78 130.0 0.00 -- 26.8 60.0
12/03/2019 13:00 1292.77 132.0 0.00 -- 24.8 68.0
12/03/2019 12:00 1292.77 131.0 0.00 -- 24.1 75.0
12/03/2019 11:00 1292.77 131.0 0.00 -- 22.6 88.0
12/03/2019 10:00 1292.78 131.0 0.00 -- 22.3 88.0
12/03/2019 09:00 1292.79 132.0 0.00 -- 21.5 92.0
12/03/2019 08:00 1292.77 132.0 0.00 -- 24.8 90.0
12/03/2019 07:00 1292.77 131.0 0.00 -- 24.1 91.0
12/03/2019 06:00 1292.77 131.0 0.00 -- 22.6 94.0
12/03/2019 05:00 1292.78 131.0 0.00 -- 22.3 98.0
12/03/2019 04:00 1292.79 132.0 0.00 -- 21.5 95.0
12/03/2019 03:00 1292.79 132.0 0.00 -- 21.5 99.0
12/03/2019 02:00 1292.80 133.0 0.00 -- 21.5 96.0
12/03/2019 01:00 1292.81 133.0 0.00 -- 21.5 98.0
12/03/2019 00:00 1292.81 133.0 0.00 -- 21.9 98.0
12/02/2019 23:00 1292.82 134.0 0.00 -- 21.6 96.0
12/02/2019 22:00 1292.82 135.0 0.00 -- 21.7 89.0
12/02/2019 21:00 1292.83 135.0 0.00 -- 22.3 92.0
12/02/2019 20:00 1292.83 135.0 0.00 -- 22.9 78.0
12/02/2019 19:00 1292.84 136.0 0.00 -- 22.9 78.0
12/02/2019 18:00 1292.85 137.0 0.00 -- 22.7 93.0
12/02/2019 17:00 1292.85 136.0 0.00 -- 23.2 86.0
12/02/2019 16:00 1292.86 137.0 0.00 -- 22.6 81.0
12/02/2019 15:00 1292.87 137.0 0.00 -- 23.3 81.0
12/02/2019 14:00 1292.87 138.0 0.00 -- 22.9 90.0
12/02/2019 13:00 1292.88 138.0 0.00 -- 22.7 99.0
12/02/2019 12:00 1292.88 140.0 0.00 -- 23.2 99.0
12/02/2019 11:00 1292.89 139.0 0.00 -- 23.6 99.0
12/02/2019 10:00 1292.90 139.0 0.00 -- 23.8 99.0
12/02/2019 09:00 1292.91 140.0 0.00 -- 24.8 99.0
12/02/2019 08:00 1292.91 141.0 0.00 -- 25.3 99.0
12/02/2019 07:00 1292.91 141.0 0.00 -- 26.2 99.0
12/02/2019 06:00 1292.92 142.0 0.00 -- 26.1 99.0
12/02/2019 05:00 1292.92 143.0 0.00 -- 25.5 99.0
12/02/2019 04:00 1292.93 142.0 0.00 -- 24.6 99.0
12/02/2019 03:00 1292.93 143.0 0.00 -- 23.8 99.0
12/02/2019 02:00 1292.94 143.0 0.00 -- 23.1 99.0
12/02/2019 01:00 1292.94 143.0 0.00 -- 22.6 99.0
12/02/2019 00:00 1292.95 144.0 0.00 0.00 22.0 99.0
12/01/2019 23:00 1292.96 144.0 0.00 -- 21.5 99.0
12/01/2019 22:00 1292.96 144.0 0.00 -- 21.5 96.6
12/01/2019 21:00 1292.96 144.0 0.00 -- 21.4 94.1
12/01/2019 20:00 1292.96 145.0 0.00 -- 21.3 91.7
12/01/2019 19:00 1292.96 146.0 0.00 -- 21.3 89.3
12/01/2019 18:00 1292.97 144.0 0.00 -- 21.3 86.9
12/01/2019 17:00 1292.96 -- 0.00 -- 21.9 84.4
12/01/2019 16:00 1292.96 -- 0.00 -- 22.5 82.0
12/01/2019 15:00 1292.96 145.0 0.00 -- 23.4 66.0
12/01/2019 14:00 1292.97 145.0 0.00 -- 23.8 54.0
12/01/2019 13:00 1292.98 145.0 0.00 -- 24.6 53.0
12/01/2019 12:00 1292.98 146.0 0.00 -- 23.5 53.7
12/01/2019 11:00 1292.99 146.0 0.00 -- 24.1 54.5
12/01/2019 10:00 1292.96 145.0 0.00 -- 23.4 55.2
12/01/2019 09:00 1292.97 145.0 0.00 -- 23.8 55.9
12/01/2019 08:00 1292.98 145.0 0.00 -- 24.6 56.7
12/01/2019 07:00 1292.98 146.0 0.00 -- 23.5 57.4
12/01/2019 06:00 1292.99 146.0 0.00 -- 24.1 58.1
12/01/2019 05:00 1293.00 147.0 0.00 -- 19.0 58.9
12/01/2019 04:00 1293.00 147.0 0.00 -- 14.3 59.6
12/01/2019 03:00 1293.01 148.0 0.00 -- 10.4 60.3
12/01/2019 02:00 1293.02 148.0 0.00 -- 8.0 61.1
12/01/2019 01:00 1293.02 149.0 0.00 -- 8.6 61.8
12/01/2019 00:00 1293.03 149.0 0.00 0.00 9.8 62.5
11/30/2019 23:00 1293.04 150.0 0.00 -- 12.0 63.3
11/30/2019 22:00 1293.04 150.0 0.00 -- 12.3 64.0
11/30/2019 21:00 1293.05 151.0 0.00 -- 12.4 64.7
11/30/2019 20:00 1293.06 152.0 0.00 -- 11.7 65.5
11/30/2019 19:00 1293.08 151.0 0.00 -- 12.1 66.2
11/30/2019 18:00 1293.06 152.0 0.00 -- 12.9 66.9
11/30/2019 17:00 1293.08 153.0 0.00 -- 14.0 67.7
11/30/2019 16:00 1293.08 153.0 0.00 -- 15.5 68.4
11/30/2019 15:00 1293.11 154.0 0.00 -- 17.3 69.1
11/30/2019 14:00 1293.11 154.0 0.00 -- 18.2 69.9
11/30/2019 13:00 1293.10 155.0 0.00 -- 19.8 70.6
11/30/2019 12:00 1293.11 154.0 0.00 -- 21.2 71.3
11/30/2019 11:00 1293.10 154.0 0.00 -- 23.8 72.1
11/30/2019 10:00 1293.12 155.0 0.00 -- 25.3 72.8
11/30/2019 09:00 1293.13 156.0 0.00 -- 27.0 73.5
11/30/2019 08:00 1293.12 156.0 0.00 -- 27.4 74.3
11/30/2019 07:00 1293.14 158.0 0.00 -- 24.8 75.0
11/30/2019 06:00 1293.13 156.0 0.00 -- 20.9 74.0
11/30/2019 05:00 1293.14 157.0 0.00 -- 18.6 76.0
11/30/2019 04:00 1293.15 157.0 0.00 -- 17.3 76.0
11/30/2019 03:00 1293.14 158.0 0.00 -- 15.4 84.0
11/30/2019 02:00 1293.15 158.0 0.00 -- 15.5 82.0
11/30/2019 01:00 1293.15 157.0 0.00 -- 15.4 78.0
11/30/2019 00:00 1293.16 158.0 0.00 0.00 16.4 74.0
11/29/2019 23:00 1293.17 158.0 0.00 -- 16.7 73.0
11/29/2019 22:00 1293.16 159.0 0.00 -- 16.8 68.0
11/29/2019 21:00 1293.16 158.0 0.00 -- 17.2 68.0
11/29/2019 20:00 1293.16 159.0 0.00 -- 18.3 71.0
11/29/2019 19:00 1293.17 159.0 0.00 -- 19.0 73.0
11/29/2019 18:00 1293.17 159.0 0.00 -- 19.3 69.0
11/29/2019 17:00 1293.18 160.0 0.00 -- 19.8 75.0
11/29/2019 16:00 1293.18 160.0 0.00 -- 20.9 72.0
11/29/2019 15:00 1293.17 160.0 0.00 -- 22.1 69.0
11/29/2019 14:00 1293.18 159.0 0.00 -- 23.3 61.0
11/29/2019 13:00 1293.18 160.0 0.00 -- 24.8 59.0
11/29/2019 12:00 1293.17 161.0 0.00 -- 25.8 64.0
11/29/2019 11:00 1293.17 160.0 0.00 -- 26.7 69.0
11/29/2019 10:00 1293.17 159.0 0.00 -- 28.2 71.0
11/29/2019 09:00 1293.16 159.0 0.00 -- 30.6 74.0
11/29/2019 08:00 1293.18 160.0 0.00 -- 31.4 80.0
11/29/2019 07:00 1293.18 160.0 0.00 -- 29.3 82.0
11/29/2019 06:00 1293.18 159.0 0.00 -- 27.5 83.0
11/29/2019 05:00 1293.18 160.0 0.00 -- 27.5 82.0
11/29/2019 04:00 1293.16 159.0 0.00 -- 26.4 82.0
11/29/2019 03:00 1293.16 158.0 0.00 -- 25.4 81.0
11/29/2019 02:00 1293.13 159.0 0.00 -- 25.1 80.0
11/29/2019 01:00 1293.15 157.0 0.00 -- 25.1 78.0
11/29/2019 00:00 1293.13 157.0 0.00 0.00 25.3 78.0
11/28/2019 23:00 1293.12 157.0 0.00 -- 25.4 79.0
11/28/2019 22:00 1293.14 156.0 0.00 -- 25.6 80.0
11/28/2019 21:00 1293.13 158.0 0.00 -- 25.6 80.0
11/28/2019 20:00 1293.12 155.0 0.00 -- 25.2 81.0
11/28/2019 19:00 1293.10 155.0 0.00 -- 25.2 81.0
11/28/2019 18:00 1293.10 155.0 0.00 -- 25.4 81.0
11/28/2019 17:00 1293.11 154.0 0.00 -- 25.5 81.0
11/28/2019 16:00 1293.07 155.0 0.00 -- 25.4 79.0
11/28/2019 15:00 1293.05 150.0 0.00 -- 26.0 79.0
11/28/2019 14:00 1293.04 153.0 0.00 -- 26.4 78.0
11/28/2019 13:00 1293.04 151.0 0.00 -- 27.2 80.0
11/28/2019 12:00 1293.05 151.0 0.00 -- 28.8 80.0
11/28/2019 11:00 1293.04 150.0 0.00 -- 29.7 89.0
11/28/2019 10:00 1292.99 148.0 0.00 -- 30.8 96.0
11/28/2019 09:00 1292.99 148.0 0.00 -- 31.5 95.0
11/28/2019 08:00 1292.98 149.0 0.00 -- 31.3 99.0
11/28/2019 07:00 1292.97 146.0 0.00 -- 31.6 100.0
11/28/2019 06:00 1292.96 145.0 0.00 -- 31.9 99.0
11/28/2019 05:00 1292.90 143.0 0.00 -- 32.2 100.0
11/28/2019 04:00 1292.93 140.0 0.00 -- 34.2 99.0
11/28/2019 03:00 1292.88 142.0 0.00 -- 34.8 100.0
11/28/2019 02:00 1292.87 138.0 0.02 -- 33.7 99.0
11/28/2019 01:00 1292.84 138.0 0.01 -- 33.6 99.0
11/28/2019 00:00 1292.84 136.0 0.03 0.03 33.8 100.0
11/27/2019 23:00 1292.81 135.0 0.02 -- 34.1 100.0
11/27/2019 22:00 1292.80 134.0 0.03 -- 35.2 100.0
11/27/2019 21:00 1292.78 133.0 0.01 -- 36.8 100.0
11/27/2019 20:00 1292.78 132.0 0.00 -- 38.3 100.0
11/27/2019 19:00 1292.77 132.0 0.18 -- 39.1 100.0
11/27/2019 18:00 1292.75 130.0 0.00 -- 39.3 100.0
11/27/2019 17:00 1292.75 130.0 0.00 -- 38.6 99.0
11/27/2019 16:00 1292.75 130.0 0.00 -- 38.5 99.0
11/27/2019 15:00 1292.75 130.0 0.00 -- 39.6 96.0
11/27/2019 14:00 1292.75 129.0 0.00 -- 40.2 89.0
11/27/2019 13:00 1292.75 130.0 0.00 -- 40.1 84.0
11/27/2019 12:00 1292.75 130.0 0.01 -- 39.4 85.0
11/27/2019 11:00 1292.75 130.0 0.01 -- 36.7 99.0
11/27/2019 10:00 1292.75 130.0 0.00 -- 33.1 100.0
11/27/2019 09:00 1292.75 130.0 0.00 -- 30.8 100.0
11/27/2019 08:00 1292.76 97.0 0.00 -- 28.2 100.0
11/27/2019 07:00 1292.76 98.0 0.00 -- 26.6 100.0
11/27/2019 06:00 1292.75 97.0 0.00 -- 26.6 100.0
11/27/2019 05:00 1292.75 97.0 0.00 -- 26.8 100.0
11/27/2019 04:00 1292.74 97.0 0.00 -- 26.9 100.0
11/27/2019 03:00 1292.74 97.0 0.00 -- 26.9 100.0
11/27/2019 02:00 1292.74 96.0 0.00 -- 27.3 100.0
11/27/2019 01:00 1292.73 95.0 0.00 -- 28.2 100.0
11/27/2019 00:00 1292.72 95.0 0.00 0.20 28.3 100.0
11/26/2019 23:00 1292.71 95.0 0.00 -- 29.8 100.0
11/26/2019 22:00 1292.71 95.0 0.00 -- 30.8 100.0
11/26/2019 21:00 1292.70 94.0 0.00 -- 31.4 100.0
11/26/2019 20:00 1292.70 94.0 0.00 -- 32.4 99.0
11/26/2019 19:00 1292.69 94.0 0.00 -- 33.9 99.0
11/26/2019 18:00 1292.68 93.0 0.00 -- 37.2 93.0
11/26/2019 17:00 1292.67 93.0 0.02 -- 47.2 59.0
11/26/2019 16:00 1292.66 92.0 0.07 -- 49.2 56.0
11/26/2019 15:00 1292.65 92.0 0.09 -- 48.6 56.0
11/26/2019 14:00 1292.64 90.0 0.09 -- 48.4 56.0
11/26/2019 13:00 1292.63 89.0 0.02 -- 44.5 64.0
11/26/2019 12:00 1292.62 89.0 0.00 -- 41.4 74.0
11/26/2019 11:00 1292.63 89.0 0.01 -- 38.8 84.0
11/26/2019 10:00 1292.63 90.0 0.00 -- 32.1 100.0
11/26/2019 09:00 1292.62 89.0 0.00 -- 28.4 100.0
11/26/2019 08:00 1292.61 89.0 0.00 -- 27.5 100.0
11/26/2019 07:00 1292.61 88.0 0.00 -- 27.8 100.0
11/26/2019 06:00 1292.60 88.0 0.00 -- 28.3 100.0
11/26/2019 05:00 1292.59 87.0 0.00 -- 28.5 100.0
11/26/2019 04:00 1292.58 87.0 0.00 -- 28.8 100.0
11/26/2019 03:00 1292.57 87.0 0.00 -- 29.3 100.0
11/26/2019 02:00 1292.56 86.0 0.00 -- 29.8 100.0
11/26/2019 01:00 1292.55 85.0 0.00 -- 30.5 100.0
11/26/2019 00:00 1292.55 85.0 0.00 0.30 31.0 100.0
11/25/2019 23:00 1292.54 84.0 0.00 -- 32.0 99.0
11/25/2019 22:00 1292.53 84.0 0.00 -- 33.8 99.0
11/25/2019 21:00 1292.52 83.0 0.00 -- 32.3 100.0
11/25/2019 20:00 1292.50 82.0 0.00 -- 30.9 100.0
11/25/2019 19:00 1292.50 82.0 0.00 -- 31.3 100.0
11/25/2019 18:00 1292.48 81.0 0.00 -- 30.4 99.0
11/25/2019 17:00 1292.47 80.0 0.00 -- 33.3 99.0
11/25/2019 16:00 1292.46 79.0 0.00 -- 39.8 67.0
11/25/2019 15:00 1292.44 79.0 0.00 -- 40.1 66.0
11/25/2019 14:00 1292.43 78.0 0.00 -- 41.8 66.0
11/25/2019 13:00 1292.42 77.0 0.00 -- 40.9 65.0
11/25/2019 12:00 1292.41 77.0 0.00 -- 37.7 74.0
11/25/2019 11:00 1292.40 76.0 0.00 -- 35.9 82.0
11/25/2019 10:00 1292.39 75.0 0.00 -- 34.1 88.0
11/25/2019 09:00 1292.37 75.0 0.00 -- 31.2 99.0
11/25/2019 08:00 1292.36 74.0 0.00 -- 31.0 99.0
11/25/2019 07:00 1292.35 73.0 0.00 -- 32.4 92.0
11/25/2019 06:00 1292.34 72.0 0.00 -- 32.7 89.0
11/25/2019 05:00 1292.32 72.0 0.00 -- 31.9 91.0
11/25/2019 04:00 1292.32 71.0 0.00 -- 30.7 92.0
11/25/2019 03:00 1292.31 70.0 0.00 -- 30.7 92.0
11/25/2019 02:00 1292.29 70.0 0.00 -- 31.2 99.0
11/25/2019 01:00 1292.28 69.0 0.00 -- 31.7 99.0
11/25/2019 00:00 1292.26 68.0 0.00 0.00 31.5 99.0
11/24/2019 23:00 1292.24 67.0 0.00 -- 31.8 100.0
11/24/2019 22:00 1292.25 67.0 0.00 -- 31.4 100.0
11/24/2019 21:00 1292.21 65.0 0.00 -- 31.0 100.0
11/24/2019 20:00 1292.18 65.0 0.00 -- 30.8 100.0
11/24/2019 19:00 1292.17 63.0 0.00 -- 30.8 100.0
11/24/2019 18:00 1292.15 62.0 0.00 -- 30.7 100.0
11/24/2019 17:00 1292.11 61.0 0.04 -- 31.0 100.0
11/24/2019 16:00 1292.09 59.0 0.04 -- 31.2 100.0
11/24/2019 15:00 1292.08 58.0 0.04 -- 31.6 100.0
11/24/2019 14:00 1292.05 57.0 0.07 -- 31.7 100.0
11/24/2019 13:00 1292.03 56.0 0.11 -- 31.1 100.0
11/24/2019 12:00 1292.01 55.0 0.07 -- 30.8 100.0
11/24/2019 11:00 1292.01 54.0 0.00 -- 30.5 100.0
11/24/2019 10:00 1292.00 54.0 0.00 -- 29.8 100.0
11/24/2019 09:00 1292.00 53.0 0.00 -- 30.2 100.0
11/24/2019 08:00 1292.00 54.0 0.00 -- 30.5 100.0
11/24/2019 07:00 1291.99 53.0 0.00 -- 29.9 99.0
11/24/2019 06:00 1291.99 53.0 0.00 -- 29.8 99.0
11/24/2019 05:00 1291.97 53.0 0.00 -- 30.1 99.0
11/24/2019 04:00 1291.97 52.0 0.00 -- 30.3 79.0
11/24/2019 03:00 1291.97 52.0 0.00 -- 27.8 82.0
11/24/2019 02:00 1291.97 52.0 0.00 -- 27.0 83.0
11/24/2019 01:00 1291.97 52.0 0.00 -- 25.6 84.0
11/24/2019 00:00 1291.97 52.0 0.00 0.37 25.7 81.0
11/23/2019 23:00 1291.97 52.0 0.00 -- 26.5 76.0
11/23/2019 22:00 1291.97 52.0 0.00 -- 26.9 78.0
11/23/2019 21:00 1291.97 52.0 0.00 -- 26.4 77.0
11/23/2019 20:00 1291.97 52.0 0.00 -- 25.6 76.0
11/23/2019 19:00 1291.97 52.0 0.00 -- 25.7 73.0
11/23/2019 18:00 1291.97 52.0 0.00 -- 26.5 70.0
11/23/2019 17:00 1291.97 52.0 0.00 -- 26.9 51.0
11/23/2019 16:00 1291.97 52.0 0.00 -- 26.4 45.0
11/23/2019 15:00 1291.96 51.0 0.00 -- 26.2 38.0
11/23/2019 14:00 1291.96 51.0 0.00 -- 26.8 32.0
11/23/2019 13:00 1291.97 51.0 0.00 -- 27.7 35.0
11/23/2019 12:00 1291.96 51.0 0.00 -- 33.5 38.0
11/23/2019 11:00 1291.97 52.0 0.00 -- 35.2 41.0
11/23/2019 10:00 1291.97 52.0 0.00 -- 36.2 47.0
11/23/2019 09:00 1291.96 52.0 0.00 -- 37.2 52.0
11/23/2019 08:00 1291.96 51.0 0.00 -- 34.3 56.0
11/23/2019 07:00 1291.96 51.0 0.00 -- 30.5 60.0
11/23/2019 06:00 1291.96 51.0 0.00 -- 27.8 60.0
11/23/2019 05:00 1291.96 51.0 0.00 -- 25.8 58.0
11/23/2019 04:00 1291.96 51.0 0.00 -- 24.0 58.0
11/23/2019 03:00 1291.95 52.0 0.00 -- 23.2 58.0
11/23/2019 02:00 1291.95 51.0 0.00 -- 23.0 56.0
11/23/2019 01:00 1291.96 51.0 0.00 -- 23.9 59.0
11/23/2019 00:00 1291.96 51.0 0.00 0.00 24.4 59.0
11/22/2019 23:00 1291.96 52.0 0.00 -- 25.0 62.0
11/22/2019 22:00 1291.94 51.0 0.00 -- 25.5 58.0
11/22/2019 21:00 1291.95 51.0 0.00 -- 26.2 60.0
11/22/2019 20:00 1291.97 51.0 0.00 -- 26.6 64.0
11/22/2019 19:00 1291.97 52.0 0.00 -- 27.0 65.0
11/22/2019 18:00 1291.95 52.0 0.00 -- 28.7 70.0
11/22/2019 17:00 1291.95 51.0 0.00 -- 30.4 71.0
11/22/2019 16:00 1291.96 52.0 0.00 -- 31.9 86.0
11/22/2019 15:00 1291.93 51.0 0.00 -- 33.2 95.0
11/22/2019 14:00 1291.96 51.0 0.00 -- 34.5 99.0
11/22/2019 13:00 1291.95 51.0 0.00 -- 34.8 99.0
11/22/2019 12:00 1291.93 50.0 0.00 -- 35.2 86.0
11/22/2019 11:00 1291.93 50.0 0.00 -- 35.8 80.0
11/22/2019 10:00 1291.94 50.0 0.02 -- 37.4 84.0
11/22/2019 09:00 1291.92 50.0 0.03 -- 38.0 85.0
11/22/2019 08:00 1291.92 49.0 0.02 -- 37.7 99.0
11/22/2019 07:00 1291.90 49.0 0.00 -- 39.3 99.0
11/22/2019 06:00 1291.91 49.0 0.00 -- 38.9 94.0
11/22/2019 05:00 1291.90 48.0 0.00 -- 37.9 96.0
11/22/2019 04:00 1291.90 48.0 0.00 -- 37.5 100.0
11/22/2019 03:00 1291.90 49.0 0.00 -- 34.8 100.0
11/22/2019 02:00 1291.90 48.0 0.00 -- 34.8 100.0
11/22/2019 01:00 1291.89 48.0 0.00 -- 35.6 100.0
11/22/2019 00:00 1291.90 48.0 0.00 0.07 35.2 100.0
11/21/2019 23:00 1291.89 48.0 0.00 -- 33.7 100.0
11/21/2019 22:00 1291.89 48.0 0.00 -- 33.4 100.0
11/21/2019 21:00 1291.90 48.0 0.00 -- 31.3 100.0
11/21/2019 20:00 1291.90 48.0 0.01 -- 31.1 99.0
11/21/2019 19:00 1291.89 48.0 0.00 -- 30.5 99.0
11/21/2019 18:00 1291.89 48.0 0.00 -- 29.2 99.0
11/21/2019 17:00 1291.89 48.0 0.00 -- 28.4 90.0
11/21/2019 16:00 1291.89 48.0 0.00 -- 27.8 70.0
11/21/2019 15:00 1291.89 48.0 0.00 -- 27.6 67.0
11/21/2019 14:00 1291.89 48.0 0.00 -- 27.6 70.0
11/21/2019 13:00 1291.89 48.0 0.00 -- 29.4 72.0
11/21/2019 12:00 1291.89 47.0 0.00 -- 33.1 77.0
11/21/2019 11:00 1291.89 47.0 0.00 -- 36.5 78.0
11/21/2019 10:00 1291.89 48.0 0.01 -- 37.3 84.0
11/21/2019 09:00 1291.87 48.0 0.02 -- 37.9 90.0
11/21/2019 08:00 1291.88 48.0 0.00 -- 36.4 95.0
11/21/2019 07:00 1291.88 47.0 0.00 -- 33.1 92.0
11/21/2019 06:00 1291.87 47.0 0.00 -- 31.5 89.0
11/21/2019 05:00 1291.87 47.0 0.00 -- 29.8 93.0
11/21/2019 04:00 1291.88 47.0 0.00 -- 28.3 96.0
11/21/2019 03:00 1291.87 47.0 0.00 -- 27.6 99.0
11/21/2019 02:00 1291.88 47.0 0.00 -- 28.5 99.0
11/21/2019 01:00 1291.87 47.0 0.00 -- 29.0 99.0
11/21/2019 00:00 1291.87 47.0 0.00 0.04 29.3 99.0
11/20/2019 23:00 1291.88 47.0 0.00 -- 29.1 99.0
11/20/2019 22:00 1291.86 47.0 0.00 -- 28.6 99.0
11/20/2019 21:00 1291.87 46.0 0.00 -- 29.0 99.0
11/20/2019 20:00 1291.86 47.0 0.00 -- 29.3 99.0
11/20/2019 19:00 1291.86 46.0 0.00 -- 29.2 99.0
11/20/2019 18:00 1291.86 46.0 0.00 -- 29.2 100.0
11/20/2019 17:00 1291.86 46.0 0.00 -- 29.4 100.0
11/20/2019 16:00 1291.85 46.0 0.00 -- 29.7 100.0
11/20/2019 15:00 1291.85 46.0 0.00 -- 29.8 100.0
11/20/2019 14:00 1291.85 45.0 0.00 -- 29.9 100.0
11/20/2019 13:00 1291.84 45.0 0.00 -- 30.2 100.0
11/20/2019 12:00 1291.84 45.0 0.00 -- 30.5 100.0
11/20/2019 11:00 1291.84 45.0 0.00 -- 30.7 100.0
11/20/2019 10:00 1291.83 45.0 0.00 -- 31.0 100.0
11/20/2019 09:00 1291.83 45.0 0.00 -- 31.0 100.0
11/20/2019 08:00 1291.83 45.0 0.00 -- 31.2 100.0
11/20/2019 07:00 1291.82 44.0 0.01 -- 31.4 100.0
11/20/2019 06:00 1291.81 44.0 0.01 -- 31.9 100.0
11/20/2019 05:00 1291.81 44.0 0.00 -- 31.9 100.0
11/20/2019 04:00 1291.81 44.0 0.00 -- 31.7 100.0
11/20/2019 03:00 1291.81 44.0 0.00 -- 31.5 100.0
11/20/2019 02:00 1291.81 44.0 0.00 -- 31.6 100.0
11/20/2019 01:00 1291.80 43.0 0.00 -- 31.5 100.0
11/20/2019 00:00 1291.80 43.0 0.00 0.02 31.4 100.0
11/19/2019 23:00 1291.80 43.0 0.00 -- 31.1 100.0
11/19/2019 22:00 1291.79 43.0 0.00 -- 31.2 100.0
11/19/2019 21:00 1291.79 43.0 0.00 -- 31.5 100.0
11/19/2019 20:00 1291.79 43.0 0.00 -- 31.5 100.0
11/19/2019 19:00 1291.78 42.0 0.00 -- 32.0 100.0
11/19/2019 18:00 1291.77 42.0 0.00 -- 32.7 100.0
11/19/2019 17:00 1291.77 42.0 0.00 -- 33.6 100.0
11/19/2019 16:00 1291.77 42.0 0.04 -- 34.7 100.0
11/19/2019 15:00 1291.77 42.0 0.04 -- 34.6 99.0
11/19/2019 14:00 1291.76 41.0 0.00 -- 34.7 99.0
11/19/2019 13:00 1291.76 41.0 0.00 -- 34.3 100.0
11/19/2019 12:00 1291.76 41.0 0.00 -- 32.3 100.0
11/19/2019 11:00 1291.76 41.0 0.01 -- 30.6 100.0
11/19/2019 10:00 1291.74 41.0 0.03 -- 31.9 100.0
11/19/2019 09:00 1291.74 40.0 0.10 -- 31.2 100.0
11/19/2019 08:00 1291.73 40.0 0.04 -- 30.5 100.0
11/19/2019 07:00 1291.72 40.0 0.00 -- 30.8 100.0
11/19/2019 06:00 1291.72 39.0 0.01 -- 31.2 100.0
11/19/2019 05:00 1291.72 39.0 0.00 -- 31.8 100.0
11/19/2019 04:00 1291.72 39.0 0.01 -- 31.8 100.0
11/19/2019 03:00 1291.72 39.0 0.01 -- 31.8 100.0
11/19/2019 02:00 1291.71 39.0 0.00 -- 32.4 100.0
11/19/2019 01:00 1291.72 39.0 0.00 -- 33.7 100.0
11/19/2019 00:00 1291.72 39.0 0.00 0.29 34.0 100.0
11/18/2019 23:00 1291.71 39.0 0.00 -- 33.9 100.0
11/18/2019 22:00 1291.72 39.0 0.00 -- 33.9 100.0
11/18/2019 21:00 1291.71 39.0 0.00 -- 33.1 100.0
11/18/2019 20:00 1291.72 39.0 0.00 -- 33.3 99.0
11/18/2019 19:00 1291.71 39.0 0.00 -- 33.9 99.0
11/18/2019 18:00 1291.72 39.0 0.00 -- 34.3 90.0
11/18/2019 17:00 1291.72 39.0 0.00 -- 34.9 82.0
11/18/2019 16:00 1291.71 39.0 0.00 -- 35.3 78.0
11/18/2019 15:00 1291.71 39.0 0.00 -- 35.3 76.0
11/18/2019 14:00 1291.71 -- 0.00 -- 34.3 79.0
11/18/2019 13:00 1291.71 -- 0.00 -- 33.2 82.0
11/18/2019 12:00 1291.72 39.0 0.00 -- 31.9 87.0
11/18/2019 11:00 1291.72 39.0 0.00 -- 30.3 91.0
11/18/2019 10:00 1291.72 39.0 0.00 -- 29.4 89.0
11/18/2019 09:00 1291.71 39.0 0.00 -- 28.4 85.0
11/18/2019 08:00 1291.71 39.0 0.00 -- 27.6 85.0
11/18/2019 07:00 1291.72 39.0 0.00 -- 26.9 85.0
11/18/2019 06:00 1291.72 39.0 0.00 -- 26.2 91.0
11/18/2019 05:00 1291.71 39.0 0.00 -- 26.2 88.0
11/18/2019 04:00 1291.72 39.0 0.00 -- 26.5 79.0
11/18/2019 03:00 1291.72 39.0 0.00 -- 26.5 76.0
11/18/2019 02:00 1291.72 39.0 0.00 -- 26.2 76.0
11/18/2019 01:00 1291.72 39.0 0.00 -- 26.3 75.0
11/18/2019 00:00 1291.71 39.0 0.00 -- 26.0 79.0
11/17/2019 23:00 1291.72 39.0 0.00 -- 26.4 78.0
11/17/2019 22:00 1291.72 39.0 0.00 -- 26.6 77.0
11/17/2019 21:00 1291.72 39.0 0.00 -- 27.1 74.0
11/17/2019 20:00 1291.72 39.0 0.00 -- 27.3 72.0
11/17/2019 19:00 1291.71 39.0 0.00 -- 26.0 70.0
11/17/2019 18:00 1291.72 39.0 0.00 -- 26.4 71.0
11/17/2019 17:00 1291.72 39.0 0.00 -- 26.6 68.0
11/17/2019 16:00 1291.72 39.0 0.00 -- 27.1 62.0
11/17/2019 15:00 1291.72 39.0 0.00 -- 27.3 54.0
11/17/2019 14:00 1291.72 39.0 0.00 -- 27.7 46.0
11/17/2019 13:00 1291.72 39.0 0.00 -- 28.0 48.0
11/17/2019 12:00 1291.72 39.0 0.00 -- 28.3 43.0
11/17/2019 11:00 1291.72 39.0 0.00 -- 28.8 36.0
11/17/2019 10:00 1291.72 39.0 0.00 -- 30.6 42.0
11/17/2019 09:00 1291.72 39.0 0.00 -- 31.4 83.0
11/17/2019 08:00 1291.72 39.0 0.00 -- 29.6 82.0
11/17/2019 07:00 1291.71 39.0 0.00 -- 25.1 83.0
11/17/2019 06:00 1291.72 39.0 0.00 -- 22.0 87.0
11/17/2019 05:00 1291.72 40.0 0.00 -- 19.1 82.0
11/17/2019 04:00 1291.72 39.0 0.00 -- 10.8 82.0
11/17/2019 03:00 1291.72 39.0 0.00 -- 6.5 81.0
11/17/2019 02:00 1291.72 39.0 0.00 -- 6.2 76.0
11/17/2019 01:00 1291.72 39.0 0.00 -- 7.9 75.0
11/17/2019 00:00 1291.72 40.0 0.00 0.00 6.7 69.0
11/16/2019 23:00 1291.72 39.0 0.00 -- 7.2 61.0
11/16/2019 22:00 1291.72 40.0 0.00 -- 8.1 57.0
11/16/2019 21:00 1291.73 40.0 0.00 -- 8.3 46.0
11/16/2019 20:00 1291.73 39.0 0.00 -- 10.1 39.0
11/16/2019 19:00 1291.72 40.0 0.00 -- 11.0 44.0
11/16/2019 18:00 1291.73 40.0 0.00 -- 11.9 35.0
11/16/2019 17:00 1291.72 40.0 0.00 -- 13.9 32.0
11/16/2019 16:00 1291.73 40.0 0.00 -- 16.0 31.0
11/16/2019 15:00 1291.73 40.0 0.00 -- 18.1 27.0
11/16/2019 14:00 1291.73 40.0 0.00 -- 19.0 23.0
11/16/2019 13:00 1291.73 40.0 0.00 -- 21.1 29.0
11/16/2019 12:00 1291.73 40.0 0.00 -- 22.5 38.0
11/16/2019 11:00 1291.74 40.0 0.00 -- 24.0 42.0
11/16/2019 10:00 1291.75 40.0 0.00 -- 25.7 43.0
11/16/2019 09:00 1291.74 40.0 0.00 -- 27.9 40.0
11/16/2019 08:00 1291.74 40.0 0.00 -- 26.5 42.0
11/16/2019 07:00 1291.73 40.0 0.00 -- 22.4 45.0
11/16/2019 06:00 1291.73 40.0 0.00 -- 19.6 50.0
11/16/2019 05:00 1291.74 40.0 0.00 -- 17.5 43.0
11/16/2019 04:00 1291.74 40.0 0.00 -- 15.4 41.0
11/16/2019 03:00 1291.73 40.0 0.00 -- 14.5 44.0
11/16/2019 02:00 1291.74 40.0 0.00 -- 15.4 50.0
11/16/2019 01:00 1291.73 40.0 0.00 -- 16.9 65.0
11/16/2019 00:00 1291.73 40.0 0.00 0.00 17.9 71.0
11/15/2019 23:00 1291.74 40.0 0.00 -- 19.7 60.0
11/15/2019 22:00 1291.74 40.0 0.00 -- 22.3 62.0
11/15/2019 21:00 1291.75 40.0 0.00 -- 25.1 62.0
11/15/2019 20:00 1291.74 40.0 0.00 -- 27.7 64.0
11/15/2019 19:00 1291.75 40.0 0.00 -- 29.5 59.0
11/15/2019 18:00 1291.74 41.0 0.00 -- 32.5 58.0
11/15/2019 17:00 1291.73 40.0 0.00 -- 32.7 53.0
11/15/2019 16:00 1291.73 40.0 0.00 -- 33.1 47.0
11/15/2019 15:00 1291.73 40.0 0.00 -- 34.2 47.0
11/15/2019 14:00 1291.76 40.0 0.00 -- 35.5 42.0
11/15/2019 13:00 1291.73 40.0 0.00 -- 36.6 44.0
11/15/2019 12:00 1291.74 39.0 0.00 -- 38.3 50.0
11/15/2019 11:00 1291.73 40.0 0.00 -- 41.2 56.0
11/15/2019 10:00 1291.72 40.0 0.00 -- 41.1 62.0
11/15/2019 09:00 1291.73 40.0 0.01 -- 41.4 70.0
11/15/2019 08:00 1291.72 39.0 0.00 -- 39.0 74.0
11/15/2019 07:00 1291.72 40.0 0.00 -- 35.3 76.0
11/15/2019 06:00 1291.72 40.0 0.00 -- 32.4 77.0
11/15/2019 05:00 1291.71 49.0 0.00 -- 29.2 88.0
11/15/2019 04:00 1291.72 49.0 0.00 -- 25.9 93.0
11/15/2019 03:00 1291.72 49.0 0.00 -- 24.5 93.0
11/15/2019 02:00 1291.73 49.0 0.00 -- 24.6 91.0
11/15/2019 01:00 1291.73 49.0 0.00 -- 25.0 84.0
11/15/2019 00:00 1291.73 50.0 0.00 0.01 23.1 76.0
11/14/2019 23:00 1291.73 50.0 0.00 -- 22.5 82.0
11/14/2019 22:00 1291.73 50.0 0.00 -- 23.0 85.0
11/14/2019 21:00 1291.73 50.0 0.00 -- 22.9 85.0
11/14/2019 20:00 1291.73 50.0 0.00 -- 24.8 81.0
11/14/2019 19:00 1291.74 50.0 0.00 -- 27.3 78.0
11/14/2019 18:00 1291.74 50.0 0.00 -- 27.8 74.0
11/14/2019 17:00 1291.75 50.0 0.00 -- 28.6 69.0
11/14/2019 16:00 1291.74 51.0 0.00 -- 28.6 65.0
11/14/2019 15:00 1291.75 51.0 0.00 -- 27.8 63.0
11/14/2019 14:00 1291.75 51.0 0.00 -- 25.3 63.0
11/14/2019 13:00 1291.75 51.0 0.00 -- 23.4 59.0
11/14/2019 12:00 1291.76 51.0 0.00 -- 22.5 56.0
11/14/2019 11:00 1291.75 51.0 0.00 -- 19.8 51.0
11/14/2019 10:00 1291.76 51.0 0.00 -- 17.8 63.0
11/14/2019 09:00 1291.76 51.0 0.00 -- 15.4 68.0
11/14/2019 08:00 1291.76 51.0 0.00 -- 12.5 89.0
11/14/2019 07:00 1291.76 51.0 0.00 -- 9.7 86.0
11/14/2019 06:00 1291.76 51.0 0.00 -- 11.7 81.0
11/14/2019 05:00 1291.76 52.0 0.00 -- 10.6 88.0
11/14/2019 04:00 1291.76 52.0 0.00 -- 10.1 85.0
11/14/2019 03:00 1291.77 52.0 0.00 -- 11.3 85.0
11/14/2019 02:00 1291.77 52.0 0.00 -- 10.9 83.0
11/14/2019 01:00 1291.77 52.0 0.00 -- 10.8 80.0
11/14/2019 00:00 1291.77 52.0 0.00 0.00 10.6 78.0
11/13/2019 23:00 1291.77 52.0 0.00 -- 11.7 73.0
11/13/2019 22:00 1291.78 52.0 0.00 -- 12.1 73.0
11/13/2019 21:00 1291.77 52.0 0.00 -- 14.2 60.0
11/13/2019 20:00 1291.78 52.0 0.00 -- 14.3 62.0
11/13/2019 19:00 1291.78 52.0 0.00 -- 13.2 62.0
11/13/2019 18:00 1291.78 52.0 0.00 -- 15.9 54.0
11/13/2019 17:00 1291.79 52.0 0.00 -- 17.0 50.0
11/13/2019 16:00 1291.78 53.0 0.00 -- 17.9 51.0
11/13/2019 15:00 1291.79 53.0 0.00 -- 19.0 50.0
11/13/2019 14:00 1291.79 53.0 0.00 -- 19.5 49.0
11/13/2019 13:00 1291.78 53.0 0.00 -- 17.2 52.0
11/13/2019 12:00 1291.78 53.0 0.00 -- 14.3 56.0
11/13/2019 11:00 1291.78 53.0 0.00 -- 12.3 56.0
11/13/2019 10:00 1291.78 81.0 0.00 -- 9.8 58.0
11/13/2019 09:00 1291.79 81.0 0.00 -- 8.2 63.0
11/13/2019 08:00 1291.79 81.0 0.00 -- 7.1 63.0
11/13/2019 07:00 1291.80 81.0 0.00 -- 7.1 59.0
11/13/2019 06:00 1291.80 81.0 0.00 -- 8.2 62.0
11/13/2019 05:00 1291.81 82.0 0.00 -- 8.8 64.0
11/13/2019 04:00 1291.82 83.0 0.00 -- 9.3 59.0
11/13/2019 03:00 1291.82 83.0 0.00 -- 10.1 59.0
11/13/2019 02:00 1291.83 83.0 0.00 -- 10.9 61.0
11/13/2019 01:00 1291.84 84.0 0.00 -- 12.0 61.0
11/13/2019 00:00 1291.85 84.0 0.00 0.00 13.4 69.0
11/12/2019 23:00 1291.85 85.0 0.00 -- 14.6 74.0
11/12/2019 22:00 1291.85 85.0 0.00 -- 15.2 70.0
11/12/2019 21:00 1291.86 86.0 0.00 -- 16.4 65.0
11/12/2019 20:00 1291.86 86.0 0.00 -- 18.1 68.0
11/12/2019 19:00 1291.88 85.0 0.00 -- 19.4 68.0
11/12/2019 18:00 1291.88 87.0 0.00 -- 20.3 78.0
11/12/2019 17:00 1291.89 87.0 0.00 -- 20.5 83.0
11/12/2019 16:00 1291.89 87.0 0.00 -- 20.3 81.0
11/12/2019 15:00 1291.90 88.0 0.00 -- 20.7 84.0
11/12/2019 14:00 1291.90 88.0 0.00 -- 21.2 86.0
11/12/2019 13:00 1291.92 88.0 0.00 -- 22.7 90.0
11/12/2019 12:00 1291.90 88.0 0.00 -- 23.9 99.0
11/12/2019 11:00 1291.91 89.0 0.00 -- 27.8 100.0
11/12/2019 10:00 1291.91 89.0 0.01 -- 31.2 100.0
11/12/2019 09:00 1291.91 88.0 0.00 -- 30.0 100.0
11/12/2019 08:00 1291.92 89.0 0.00 -- 29.7 100.0
11/12/2019 07:00 1291.92 89.0 0.00 -- 28.9 100.0
11/12/2019 06:00 1291.93 89.0 0.00 -- 29.1 100.0
11/12/2019 05:00 1291.93 90.0 0.00 -- 28.7 100.0
11/12/2019 04:00 1291.94 90.0 0.00 -- 28.6 100.0
11/12/2019 03:00 1291.95 91.0 0.00 -- 28.7 100.0
11/12/2019 02:00 1291.96 92.0 0.00 -- 28.7 100.0
11/12/2019 01:00 1291.97 92.0 0.00 -- 29.2 100.0
11/12/2019 00:00 1291.96 92.0 0.00 0.01 29.6 100.0
11/11/2019 23:00 1291.98 92.0 0.00 -- 30.2 100.0
11/11/2019 22:00 1291.98 93.0 0.00 -- 31.5 100.0
11/11/2019 21:00 1291.99 93.0 0.00 -- 31.7 99.0
11/11/2019 20:00 1292.00 93.0 0.00 -- 32.0 99.0
11/11/2019 19:00 1292.00 94.0 0.00 -- 31.6 98.0
11/11/2019 18:00 1291.98 94.0 0.00 -- 30.2 93.0
11/11/2019 17:00 1291.98 93.0 0.00 -- 31.5 78.0
11/11/2019 16:00 1291.99 93.0 0.00 -- 31.7 75.0
11/11/2019 15:00 1292.00 93.0 0.00 -- 32.0 76.0
11/11/2019 14:00 1292.00 94.0 0.00 -- 31.6 75.0
11/11/2019 13:00 1292.01 94.0 0.00 -- 32.3 75.0
11/11/2019 12:00 1292.01 95.0 0.00 -- 33.9 76.0
11/11/2019 11:00 1292.02 95.0 0.00 -- 35.3 72.0
11/11/2019 10:00 1292.03 95.0 0.00 -- 35.8 75.0
11/11/2019 09:00 1292.03 96.0 0.00 -- 36.3 82.0
11/11/2019 08:00 1292.04 96.0 0.00 -- 36.7 81.0
11/11/2019 07:00 1292.06 97.0 0.00 -- 37.7 76.0
11/11/2019 06:00 1292.04 98.0 0.00 -- 38.8 72.0
11/11/2019 05:00 1292.06 97.0 0.00 -- 37.2 68.0
11/11/2019 04:00 1292.05 97.0 0.00 -- 34.4 64.0
11/11/2019 03:00 1292.05 98.0 0.00 -- 33.7 65.0
11/11/2019 02:00 1292.06 98.0 0.00 -- 34.6 64.0
11/11/2019 01:00 1292.07 98.0 0.00 -- 34.6 63.0
11/11/2019 00:00 1292.07 98.0 0.00 0.00 35.4 71.0
11/10/2019 23:00 1292.07 98.0 0.00 -- 35.8 66.0
11/10/2019 22:00 1292.09 99.0 0.00 -- 35.6 63.0
11/10/2019 21:00 1292.09 100.0 0.00 -- 35.6 63.0
11/10/2019 20:00 1292.11 100.0 0.00 -- 35.6 54.0
11/10/2019 19:00 1292.11 101.0 0.00 -- 33.0 51.0
11/10/2019 18:00 1292.12 101.0 0.00 -- 34.5 53.0
11/10/2019 17:00 1292.12 102.0 0.00 -- 34.8 49.0
11/10/2019 16:00 1292.14 102.0 0.00 -- 34.8 44.0
11/10/2019 15:00 1292.12 103.0 0.00 -- 37.0 43.0
11/10/2019 14:00 1292.14 102.0 0.00 -- 38.2 43.0
11/10/2019 13:00 1292.15 104.0 0.00 -- 37.2 45.0
11/10/2019 12:00 1292.14 103.0 0.00 -- 38.3 51.0
11/10/2019 11:00 1292.15 104.0 0.00 -- 39.6 52.0
11/10/2019 10:00 1292.14 104.0 0.00 -- 40.3 55.0
11/10/2019 09:00 1292.13 102.0 0.00 -- 40.1 58.0
11/10/2019 08:00 1292.16 103.0 0.00 -- 36.5 59.0
11/10/2019 07:00 1292.16 104.0 0.00 -- 33.2 57.0
11/10/2019 06:00 1292.17 105.0 0.00 -- 31.5 56.0
11/10/2019 05:00 1292.19 105.0 0.00 -- 29.7 55.0
11/10/2019 04:00 1292.20 107.0 0.00 -- 27.7 56.0
11/10/2019 03:00 1292.21 107.0 0.00 -- 27.2 56.0
11/10/2019 02:00 1292.23 108.0 0.00 -- 27.6 58.0
11/10/2019 01:00 1292.23 109.0 0.00 -- 27.7 60.0
11/10/2019 00:00 1292.24 109.0 0.00 0.00 27.9 58.0
11/09/2019 23:00 1292.24 110.0 0.00 -- 27.7 50.0
11/09/2019 22:00 1292.24 110.0 0.00 -- 27.7 48.0
11/09/2019 21:00 1292.23 109.0 0.00 -- 27.4 45.0
11/09/2019 20:00 1292.27 110.0 0.00 -- 26.7 44.0
11/09/2019 19:00 1292.26 111.0 0.00 -- 26.5 47.0
11/09/2019 18:00 1292.27 111.0 0.00 -- 25.9 40.0
11/09/2019 17:00 1292.28 112.0 0.00 -- 27.1 39.0
11/09/2019 16:00 1292.31 113.0 0.00 -- 26.8 35.0
11/09/2019 15:00 1292.32 114.0 0.00 -- 26.3 33.0
11/09/2019 14:00 1292.32 115.0 0.00 -- 26.1 29.0
11/09/2019 13:00 1292.34 115.0 0.00 -- 27.7 33.0
11/09/2019 12:00 1292.34 115.0 0.00 -- 29.8 51.0
11/09/2019 11:00 1292.34 116.0 0.00 -- 31.0 64.0
11/09/2019 10:00 1292.35 116.0 0.00 -- 32.5 71.0
11/09/2019 09:00 1292.36 117.0 0.00 -- 31.4 80.0
11/09/2019 08:00 1292.37 118.0 0.00 -- 30.4 89.0
11/09/2019 07:00 1292.39 118.0 0.00 -- 26.6 89.0
11/09/2019 06:00 1292.39 119.0 0.00 -- 23.3 88.0
11/09/2019 05:00 1292.40 119.0 0.00 -- 20.4 85.0
11/09/2019 04:00 1292.42 120.0 0.00 -- 16.6 78.0
11/09/2019 03:00 1292.42 121.0 0.00 -- 12.7 75.0
11/09/2019 02:00 1292.44 122.0 0.00 -- 12.2 72.0
11/09/2019 01:00 1292.45 122.0 0.00 -- 13.2 71.0
11/09/2019 00:00 1292.46 123.0 0.00 0.00 15.7 72.0
11/08/2019 23:00 1292.46 124.0 0.00 -- 17.6 71.0
11/08/2019 22:00 1292.47 124.0 0.00 -- 18.2 68.0
11/08/2019 21:00 1292.48 125.0 0.00 -- 18.8 67.0
11/08/2019 20:00 1292.48 125.0 0.00 -- 19.5 65.0
11/08/2019 19:00 1292.56 130.0 0.00 -- 22.1 61.0
11/08/2019 18:00 1292.56 131.0 0.00 -- 23.2 64.0
11/08/2019 17:00 1292.58 131.0 0.00 -- 24.0 59.0
11/08/2019 16:00 1292.59 133.0 0.00 -- 24.2 60.0
11/08/2019 15:00 1292.64 132.0 0.00 -- 24.9 58.0
11/08/2019 14:00 1292.62 133.0 0.00 -- 25.8 56.0
11/08/2019 13:00 1292.62 136.0 0.00 -- 24.2 56.0
11/08/2019 12:00 1292.62 134.0 0.00 -- 24.2 66.0
11/08/2019 11:00 1292.64 135.0 0.00 -- 23.3 66.0
11/08/2019 10:00 1292.64 137.0 0.00 -- 22.2 66.0
11/08/2019 09:00 1292.65 137.0 0.00 -- 21.2 68.0
11/08/2019 08:00 1292.65 138.0 0.00 -- 20.6 74.0
11/08/2019 07:00 1292.66 138.0 0.00 -- 21.3 87.0
11/08/2019 06:00 1292.68 138.0 0.00 -- 22.5 84.0
11/08/2019 05:00 1292.69 139.0 0.00 -- 23.5 83.0
11/08/2019 04:00 1292.69 140.0 0.00 -- 24.6 84.0
11/08/2019 03:00 1292.72 142.0 0.00 -- 26.5 85.0
11/08/2019 02:00 1292.74 143.0 0.00 -- 27.8 89.0
11/08/2019 01:00 1292.74 142.0 0.00 -- 28.3 93.0
11/08/2019 00:00 1292.74 144.0 0.00 0.00 29.0 95.0
11/07/2019 23:00 1292.76 144.0 0.00 -- 30.8 99.0
11/07/2019 22:00 1292.76 144.0 0.00 -- 31.9 100.0
11/07/2019 21:00 1292.76 145.0 0.00 -- 32.5 99.0
11/07/2019 20:00 1292.77 145.0 0.00 -- 34.3 100.0
11/07/2019 19:00 1292.78 146.0 0.00 -- 35.3 99.0
11/07/2019 18:00 1292.78 146.0 0.00 -- 36.0 99.0
11/07/2019 17:00 1292.79 146.0 0.00 -- 37.2 100.0
11/07/2019 16:00 1292.79 146.0 0.00 -- 36.8 99.0
11/07/2019 15:00 1292.80 147.0 0.00 -- 36.7 99.0
11/07/2019 14:00 1292.81 147.0 0.01 -- 37.6 86.0
11/07/2019 13:00 1292.81 147.0 0.00 -- 37.7 77.0
11/07/2019 12:00 1292.81 148.0 0.00 -- 38.2 64.0
11/07/2019 11:00 1292.79 147.0 0.00 -- 38.6 56.0
11/07/2019 10:00 1292.83 148.0 0.00 -- 40.3 50.0
11/07/2019 09:00 1292.84 150.0 0.00 -- 37.0 55.0
11/07/2019 08:00 1292.86 150.0 0.00 -- 31.2 65.0
11/07/2019 07:00 1292.87 153.0 0.00 -- 30.8 62.0
11/07/2019 06:00 1292.90 152.0 0.00 -- 30.0 64.0
11/07/2019 05:00 1292.89 154.0 0.00 -- 34.9 51.0
11/07/2019 04:00 1292.90 154.0 0.00 -- 34.8 50.0
11/07/2019 03:00 1292.92 154.0 0.00 -- 30.7 55.0
11/07/2019 02:00 1292.95 156.0 0.00 -- 30.1 54.0
11/07/2019 01:00 1292.95 158.0 0.00 -- 28.7 70.0
11/07/2019 00:00 1292.98 159.0 0.00 -- 26.2 73.0
11/06/2019 23:00 1293.00 160.0 0.00 -- 26.6 74.0
11/06/2019 22:00 1293.01 162.0 0.00 -- 27.0 75.0
11/06/2019 21:00 1293.02 163.0 0.00 -- 28.1 65.0
11/06/2019 20:00 1293.03 163.0 0.00 -- 29.7 63.0
11/06/2019 19:00 1293.06 164.0 0.00 -- 31.2 60.0
11/06/2019 18:00 1293.07 166.0 0.00 -- 36.5 47.0
11/06/2019 17:00 1293.08 167.0 0.00 -- 40.4 36.0
11/06/2019 16:00 1293.09 167.0 0.00 -- 41.7 35.0
11/06/2019 15:00 1293.11 169.0 0.00 -- 42.3 35.0
11/06/2019 14:00 1293.10 170.0 0.00 -- 43.6 37.0
11/06/2019 13:00 1293.14 171.0 0.00 -- 41.8 43.0
11/06/2019 12:00 1293.15 171.0 0.00 -- 39.6 46.0
11/06/2019 11:00 1293.15 172.0 0.00 -- 38.7 50.0
11/06/2019 10:00 1293.18 174.0 0.00 -- 37.2 54.0
11/06/2019 09:00 1293.18 174.0 0.00 -- 35.4 57.0
11/06/2019 08:00 1293.22 176.0 0.00 -- 33.7 67.0
11/06/2019 07:00 1293.22 177.0 0.00 -- 34.5 66.0
11/06/2019 06:00 1293.24 178.0 0.00 -- 34.4 67.0
11/06/2019 05:00 1293.25 179.0 0.00 -- 34.7 66.0
11/06/2019 04:00 1293.27 180.0 0.00 -- 31.8 77.0
11/06/2019 03:00 1293.29 182.0 0.00 -- 36.1 62.0
11/06/2019 02:00 1293.32 184.0 0.00 -- 36.8 61.0
11/06/2019 01:00 1293.31 185.0 0.00 -- 40.5 54.0
11/06/2019 00:00 1293.32 186.0 0.00 0.00 42.1 59.0
11/05/2019 23:00 1293.36 187.0 0.00 -- 44.0 73.0
11/05/2019 22:00 1293.38 188.0 0.01 -- 44.4 72.0
11/05/2019 21:00 1293.40 190.0 0.00 -- 45.3 74.0
11/05/2019 20:00 1293.42 191.0 0.00 -- 46.1 86.0
11/05/2019 19:00 1293.42 192.0 0.00 -- 46.3 95.0
11/05/2019 18:00 1293.46 193.0 0.00 -- 47.7 87.0
11/05/2019 17:00 1293.46 195.0 0.00 -- 48.7 89.0
11/05/2019 16:00 1293.49 197.0 0.00 -- 49.0 85.0
11/05/2019 15:00 1293.54 198.0 0.00 -- 48.6 89.0
11/05/2019 14:00 1293.55 129.0 0.00 -- 47.7 95.0
11/05/2019 13:00 1293.55 129.0 0.00 -- 47.1 98.0
11/05/2019 12:00 1293.54 129.0 0.00 -- 48.7 82.0
11/05/2019 11:00 1293.54 130.0 0.00 -- 48.0 79.0
11/05/2019 10:00 1293.57 130.0 0.00 -- 45.6 84.0
11/05/2019 09:00 1293.59 131.0 0.00 -- 42.7 90.0
11/05/2019 08:00 1293.60 132.0 0.00 -- 38.8 97.0
11/05/2019 07:00 1293.61 133.0 0.00 -- 39.4 91.0
11/05/2019 06:00 1293.60 133.0 0.00 -- 42.1 81.0
11/05/2019 05:00 1293.60 133.0 0.00 -- 42.2 79.0
11/05/2019 04:00 1293.61 133.0 0.00 -- 41.5 79.0
11/05/2019 03:00 1293.63 134.0 0.00 -- 40.6 77.0
11/05/2019 02:00 1293.62 134.0 0.00 -- 40.6 74.0
11/05/2019 01:00 1293.63 135.0 0.00 -- 40.6 72.0
11/05/2019 00:00 1293.63 135.0 0.00 0.01 41.0 67.0
11/04/2019 23:00 1293.65 135.0 0.00 -- 41.1 61.0
11/04/2019 22:00 1293.65 136.0 0.00 -- 41.1 56.0
11/04/2019 21:00 1293.66 137.0 0.00 -- 40.8 56.0
11/04/2019 20:00 1293.68 137.0 0.00 -- 39.4 58.0
11/04/2019 19:00 1293.69 139.0 0.00 -- 39.5 58.0
11/04/2019 18:00 1293.70 139.0 0.00 -- 41.8 52.0
11/04/2019 17:00 1293.70 140.0 0.00 -- 42.8 57.0
11/04/2019 16:00 1293.72 140.0 0.00 -- 43.9 47.0
11/04/2019 15:00 1293.72 140.0 0.00 -- 45.0 46.0
11/04/2019 14:00 1293.70 142.0 0.00 -- 43.4 50.0
11/04/2019 13:00 1293.73 140.0 0.00 -- 43.0 48.0
11/04/2019 12:00 1293.73 141.0 0.00 -- 39.0 56.0
11/04/2019 11:00 1293.74 142.0 0.00 -- 36.5 59.0
11/04/2019 10:00 1293.75 143.0 0.00 -- 34.0 67.0
11/04/2019 09:00 1293.77 143.0 0.00 -- 27.9 94.0
11/04/2019 08:00 1293.78 145.0 0.00 -- 26.7 92.0
11/04/2019 07:00 1293.79 146.0 0.00 -- 26.5 92.0
11/04/2019 06:00 1293.79 147.0 0.00 -- 25.5 94.0
11/04/2019 05:00 1293.80 146.0 0.00 -- 25.7 93.0
11/04/2019 04:00 1293.81 147.0 0.00 -- 25.6 92.0
11/04/2019 03:00 1293.82 148.0 0.00 -- 27.0 89.0
11/04/2019 02:00 1293.83 148.0 0.00 -- 30.0 83.0
11/04/2019 01:00 1293.83 149.0 0.00 -- 27.1 83.0
11/04/2019 00:00 1293.84 150.0 0.00 0.00 29.5 78.0
11/03/2019 23:00 1293.85 150.0 0.00 -- 29.3 74.0
11/03/2019 22:00 1293.86 150.0 0.00 -- 32.2 64.0
11/03/2019 21:00 1293.86 151.0 0.00 -- 36.9 55.0
11/03/2019 20:00 1293.88 151.0 0.00 -- 38.4 52.0
11/03/2019 19:00 1293.87 152.0 0.00 -- 40.1 45.0
11/03/2019 18:00 1293.89 152.0 0.00 -- 41.0 44.0
11/03/2019 17:00 1293.89 154.0 0.00 -- 41.2 47.0
11/03/2019 16:00 1293.91 153.0 0.00 -- 42.0 46.0
11/03/2019 15:00 1293.90 155.0 0.00 -- 42.3 43.0
11/03/2019 14:00 1293.93 155.0 0.00 -- 44.1 44.0
11/03/2019 13:00 1293.93 155.0 0.00 -- 43.5 50.0
11/03/2019 12:00 1293.93 155.0 0.00 -- 41.2 59.0
11/03/2019 11:00 1293.93 156.0 0.00 -- 39.1 66.0
11/03/2019 10:00 1293.94 157.0 0.00 -- 36.9 68.0
11/03/2019 09:00 1293.95 156.0 0.00 -- 31.9 81.0
11/03/2019 08:00 1293.95 158.0 0.00 -- 26.3 99.0
11/03/2019 07:00 1293.96 158.0 0.00 -- 29.3 89.0
11/03/2019 06:00 1293.97 158.0 0.00 -- 27.0 97.0
11/03/2019 05:00 1293.98 159.0 0.00 -- 26.1 99.0
11/03/2019 04:00 1293.98 159.0 0.00 -- 26.0 99.0
11/03/2019 03:00 1293.99 160.0 0.00 -- 25.9 99.0
11/03/2019 02:00 1293.99 160.0 0.00 -- 26.4 99.0
11/03/2019 01:00 1294.00 161.0 0.00 -- 27.6 99.0
11/03/2019 00:00 1294.02 162.0 0.00 0.00 28.2 96.0
11/02/2019 23:00 1294.02 162.0 0.00 -- 29.8 93.0
11/02/2019 22:00 1294.03 163.0 0.00 -- 29.2 93.0
11/02/2019 21:00 1294.03 163.0 0.00 -- 29.4 84.0
11/02/2019 20:00 1294.04 163.0 0.00 -- 31.9 73.0
11/02/2019 19:00 1294.04 164.0 0.00 -- 35.7 64.0
11/02/2019 18:00 1294.04 164.0 0.00 -- 42.3 42.0
11/02/2019 17:00 1294.05 163.0 0.00 -- 43.4 37.0
11/02/2019 16:00 1294.05 165.0 0.00 -- 43.8 39.0
11/02/2019 15:00 1294.05 164.0 0.00 -- 45.1 41.0
11/02/2019 14:00 1294.06 165.0 0.00 -- 42.0 44.0
11/02/2019 13:00 1294.07 165.0 0.00 -- 38.4 55.0
11/02/2019 12:00 1294.07 166.0 0.00 -- 35.6 59.0
11/02/2019 11:00 1294.08 167.0 0.00 -- 33.1 62.0
11/02/2019 10:00 1294.08 167.0 0.00 -- 27.8 91.0
11/02/2019 09:00 1294.09 167.0 0.00 -- 25.7 97.0
11/02/2019 08:00 1294.09 167.0 0.00 -- 25.6 93.0
11/02/2019 07:00 1294.09 167.0 0.00 -- 26.9 89.0
11/02/2019 06:00 1294.09 167.0 0.00 -- 27.0 87.0
11/02/2019 05:00 1294.10 168.0 0.00 -- 28.3 84.0
11/02/2019 04:00 1294.10 168.0 0.00 -- 31.1 72.0
11/02/2019 03:00 1294.10 169.0 0.00 -- 31.7 67.0
11/02/2019 02:00 1294.10 168.0 0.00 -- 32.6 72.0
11/02/2019 01:00 1294.10 169.0 0.00 -- 33.2 69.0
11/02/2019 00:00 1294.11 169.0 0.00 0.00 34.1 67.0
11/01/2019 23:00 1294.10 169.0 0.00 -- 35.2 64.0
11/01/2019 22:00 1294.11 170.0 0.00 -- 35.6 61.0
11/01/2019 21:00 1294.09 168.0 0.00 -- 35.2 60.0
11/01/2019 20:00 1294.10 167.0 0.00 -- 37.4 57.0
11/01/2019 19:00 1294.11 169.0 0.00 -- 38.5 51.0
11/01/2019 18:00 1294.08 169.0 0.00 -- 40.4 49.0
11/01/2019 17:00 1294.09 167.0 0.00 -- 42.4 48.0
11/01/2019 16:00 1294.04 167.0 0.00 -- 43.8 49.0
11/01/2019 15:00 1294.07 168.0 0.00 -- 43.8 50.0
11/01/2019 14:00 1294.06 166.0 0.00 -- 43.5 51.0
11/01/2019 13:00 1294.06 167.0 0.00 -- 43.4 49.0
11/01/2019 12:00 1294.11 167.0 0.00 -- 43.6 49.0
11/01/2019 11:00 1294.10 161.0 0.00 -- 42.8 49.0
11/01/2019 10:00 1294.03 165.0 0.00 -- 41.6 53.0
11/01/2019 09:00 1294.08 163.0 0.00 -- 40.7 63.0
11/01/2019 08:00 1294.08 165.0 0.00 -- 42.1 63.0
11/01/2019 07:00 1294.05 166.0 0.00 -- 44.2 83.0
11/01/2019 06:00 1294.06 163.0 0.00 -- 47.2 100.0
11/01/2019 05:00 1294.07 164.0 0.12 -- 50.6 100.0
11/01/2019 04:00 1293.89 168.0 0.00 -- 64.3 100.0
11/01/2019 03:00 1293.98 156.0 0.02 -- 63.1 100.0
11/01/2019 02:00 1293.91 158.0 0.00 -- 64.1 100.0
11/01/2019 01:00 1293.95 156.0 0.00 -- 64.4 100.0
11/01/2019 00:00 1294.00 158.0 0.00 0.14 64.0 100.0
10/31/2019 23:00 1294.00 160.0 0.00 -- 64.0 100.0
10/31/2019 22:00 1293.99 162.0 0.00 -- 64.0 100.0
10/31/2019 21:00 1294.03 161.0 0.00 -- 63.6 100.0
10/31/2019 20:00 1294.01 163.0 0.00 -- 63.0 100.0
10/31/2019 19:00 1294.01 163.0 0.00 -- 62.9 100.0
10/31/2019 18:00 1294.05 161.0 0.00 -- 62.6 100.0
10/31/2019 17:00 1294.07 165.0 0.00 -- 62.7 100.0
10/31/2019 16:00 1294.08 166.0 0.00 -- 62.2 100.0
10/31/2019 15:00 1294.11 168.0 0.00 -- 60.9 100.0
10/31/2019 14:00 1294.10 169.0 0.00 -- 59.8 100.0
10/31/2019 13:00 1294.11 169.0 0.00 -- 59.0 100.0
10/31/2019 12:00 1294.12 169.0 0.00 -- 57.8 100.0
10/31/2019 11:00 1294.12 170.0 0.00 -- 56.9 100.0
10/31/2019 10:00 1294.14 170.0 0.00 -- 56.4 100.0
10/31/2019 09:00 1294.14 171.0 0.00 -- 56.2 100.0
10/31/2019 08:00 1294.15 171.0 0.00 -- 56.0 100.0
10/31/2019 07:00 1294.17 171.0 0.00 -- 55.5 100.0
10/31/2019 06:00 1294.17 174.0 0.00 -- 55.6 100.0
10/31/2019 05:00 1294.20 175.0 0.00 -- 53.0 100.0
10/31/2019 04:00 1294.21 175.0 0.00 -- 52.4 100.0
10/31/2019 03:00 1294.22 176.0 0.00 -- 52.6 100.0
10/31/2019 02:00 1294.23 177.0 0.00 -- 52.5 100.0
10/31/2019 01:00 1294.25 178.0 0.00 -- 52.7 100.0
10/31/2019 00:00 1294.26 179.0 0.00 0.00 52.4 100.0
10/30/2019 23:00 1294.27 180.0 0.00 -- 52.3 100.0
10/30/2019 22:00 1294.28 181.0 0.00 -- 52.0 100.0
10/30/2019 21:00 1294.30 182.0 0.00 -- 52.1 100.0
10/30/2019 20:00 1294.31 183.0 0.00 -- 52.5 100.0
10/30/2019 19:00 1294.31 184.0 0.00 -- 53.2 100.0
10/30/2019 18:00 1294.33 185.0 0.00 -- 54.1 99.0
10/30/2019 17:00 1294.34 185.0 0.00 -- 54.9 93.0
10/30/2019 16:00 1294.35 186.0 0.00 -- 54.5 94.0
10/30/2019 15:00 1294.36 187.0 0.00 -- 55.0 91.0
10/30/2019 14:00 1294.37 187.0 0.00 -- 54.9 88.0
10/30/2019 13:00 1294.38 189.0 0.00 -- 54.4 91.0
10/30/2019 12:00 1294.41 189.0 0.00 -- 53.5 100.0
10/30/2019 11:00 1294.41 100.0 0.00 -- 50.8 100.0
10/30/2019 10:00 1294.41 100.0 0.00 -- 49.4 100.0
10/30/2019 09:00 1294.42 100.0 0.00 -- 48.5 100.0
10/30/2019 08:00 1294.42 100.0 0.00 -- 48.2 100.0
10/30/2019 07:00 1294.42 101.0 0.00 -- 48.2 100.0
10/30/2019 06:00 1294.43 100.0 0.00 -- 48.0 100.0
10/30/2019 05:00 1294.43 100.0 0.00 -- 47.3 100.0
10/30/2019 04:00 1294.43 101.0 0.00 -- 47.4 100.0
10/30/2019 03:00 1294.43 101.0 0.00 -- 47.7 100.0
10/30/2019 02:00 1294.43 101.0 0.00 -- 47.7 100.0
10/30/2019 01:00 1294.43 101.0 0.00 -- 47.6 100.0
10/30/2019 00:00 1294.43 101.0 0.00 -- 47.2 100.0
10/29/2019 23:00 1294.43 101.0 0.00 -- 47.2 100.0
10/29/2019 22:00 1294.43 101.0 0.00 -- 47.5 100.0
10/29/2019 21:00 1294.43 101.0 0.00 -- 47.5 100.0
10/29/2019 20:00 1294.43 101.0 0.00 -- 47.6 100.0
10/29/2019 19:00 1294.43 102.0 0.00 -- 48.2 100.0
10/29/2019 18:00 1294.44 101.0 0.00 -- 49.1 99.0
10/29/2019 17:00 1294.44 101.0 0.00 -- 48.8 99.0
10/29/2019 16:00 1294.44 101.0 0.00 -- 48.6 97.0
10/29/2019 15:00 1294.43 101.0 0.00 -- 48.2 99.0
10/29/2019 14:00 1294.43 101.0 0.00 -- 48.5 95.0
10/29/2019 13:00 1294.43 101.0 0.00 -- 47.0 99.0
10/29/2019 12:00 1294.43 101.0 0.00 -- 45.5 100.0
10/29/2019 11:00 1294.43 101.0 0.00 -- 44.8 100.0
10/29/2019 10:00 1294.43 101.0 0.00 -- 44.1 100.0
10/29/2019 09:00 1294.43 101.0 0.00 -- 43.4 100.0
10/29/2019 08:00 1294.44 101.0 0.00 -- 43.2 100.0
10/29/2019 07:00 1294.43 101.0 0.00 -- 43.2 100.0
10/29/2019 06:00 1294.43 101.0 0.00 -- 43.2 100.0
10/29/2019 05:00 1294.43 101.0 0.00 -- 43.1 100.0
10/29/2019 04:00 1294.43 101.0 0.00 -- 43.3 100.0
10/29/2019 03:00 1294.43 101.0 0.00 -- 43.4 100.0
10/29/2019 02:00 1294.43 101.0 0.00 -- 43.6 100.0
10/29/2019 01:00 1294.43 101.0 0.00 -- 43.7 100.0
10/29/2019 00:00 1294.43 101.0 0.00 0.00 43.8 100.0
10/28/2019 23:00 1294.42 101.0 0.00 -- 44.1 100.0
10/28/2019 22:00 1294.41 100.0 0.00 -- 44.2 100.0
10/28/2019 21:00 1294.42 100.0 0.00 -- 44.4 100.0
10/28/2019 20:00 1294.41 100.0 0.00 -- 44.4 100.0
10/28/2019 19:00 1294.41 100.0 0.00 -- 44.7 100.0
10/28/2019 18:00 1294.40 100.0 0.00 -- 45.3 100.0
10/28/2019 17:00 1294.40 100.0 0.00 -- 46.4 100.0
10/28/2019 16:00 1294.40 99.0 0.00 -- 46.8 100.0
10/28/2019 15:00 1294.40 99.0 0.00 -- 46.3 100.0
10/28/2019 14:00 1294.39 99.0 0.00 -- 46.3 100.0
10/28/2019 13:00 1294.39 99.0 0.00 -- 45.3 100.0
10/28/2019 12:00 1294.39 98.0 0.00 -- 44.9 100.0
10/28/2019 11:00 1294.38 98.0 0.00 -- 44.3 100.0
10/28/2019 10:00 1294.38 98.0 0.00 -- 43.3 100.0
10/28/2019 09:00 1294.37 98.0 0.00 -- 42.6 100.0
10/28/2019 08:00 1294.36 97.0 0.00 -- 42.4 100.0
10/28/2019 07:00 1294.36 97.0 0.00 -- 42.2 100.0
10/28/2019 06:00 1294.35 96.0 0.00 -- 41.8 100.0
10/28/2019 05:00 1294.34 96.0 0.00 -- 41.6 100.0
10/28/2019 04:00 1294.34 95.0 0.00 -- 41.7 100.0
10/28/2019 03:00 1294.33 95.0 0.00 -- 41.5 100.0
10/28/2019 02:00 1294.32 94.0 0.00 -- 41.5 100.0
10/28/2019 01:00 1294.32 94.0 0.00 -- 41.8 100.0
10/28/2019 00:00 1294.30 94.0 0.00 0.00 41.5 100.0
10/27/2019 23:00 1294.31 93.0 0.00 -- 41.3 100.0
10/27/2019 22:00 1294.30 93.0 0.00 -- 40.9 100.0
10/27/2019 21:00 1294.29 93.0 0.00 -- 40.7 100.0
10/27/2019 20:00 1294.29 93.0 0.00 -- 40.8 100.0
10/27/2019 19:00 1294.30 92.0 0.00 -- 41.5 100.0
10/27/2019 18:00 1294.31 93.0 0.00 -- 41.3 100.0
10/27/2019 17:00 1294.30 93.0 0.00 -- 40.9 100.0
10/27/2019 16:00 1294.29 93.0 0.00 -- 40.7 100.0
10/27/2019 15:00 1294.29 93.0 0.00 -- 40.8 100.0
10/27/2019 14:00 1294.29 92.0 0.00 -- 40.2 100.0
10/27/2019 13:00 1294.28 91.0 0.00 -- 39.8 100.0
10/27/2019 12:00 1294.25 91.0 0.02 -- 39.4 100.0
10/27/2019 11:00 1294.25 90.0 0.02 -- 39.0 100.0
10/27/2019 10:00 1294.22 89.0 0.02 -- 40.1 100.0
10/27/2019 09:00 1294.21 88.0 0.02 -- 40.5 100.0
10/27/2019 08:00 1294.20 87.0 0.03 -- 40.2 100.0
10/27/2019 07:00 1294.17 87.0 0.07 -- 39.8 100.0
10/27/2019 06:00 1294.17 86.0 0.00 -- 39.0 100.0
10/27/2019 05:00 1294.18 85.0 0.00 -- 39.0 100.0
10/27/2019 04:00 1294.19 85.0 0.00 -- 38.2 99.0
10/27/2019 03:00 1294.20 86.0 0.01 -- 38.7 99.0
10/27/2019 02:00 1294.19 87.0 0.00 -- 38.4 99.0
10/27/2019 01:00 1294.19 87.0 0.01 -- 37.5 99.0
10/27/2019 00:00 1294.20 86.0 0.00 0.20 36.9 99.0
10/26/2019 23:00 1294.21 86.0 0.00 -- 36.6 99.0
10/26/2019 22:00 1294.21 87.0 0.00 -- 35.4 99.0
10/26/2019 21:00 1294.21 87.0 0.00 -- 33.9 98.0
10/26/2019 20:00 1294.22 87.0 0.00 -- 33.6 87.0
10/26/2019 19:00 1294.23 88.0 0.00 -- 33.7 74.0
10/26/2019 18:00 1294.23 88.0 0.00 -- 34.6 56.0
10/26/2019 17:00 1294.22 89.0 0.00 -- 34.7 48.0
10/26/2019 16:00 1294.23 89.0 0.00 -- 36.9 51.0
10/26/2019 15:00 1294.24 89.0 0.00 -- 40.3 44.0
10/26/2019 14:00 1294.25 89.0 0.00 -- 43.3 48.0
10/26/2019 13:00 1294.25 90.0 0.00 -- 48.6 59.0
10/26/2019 12:00 1294.25 90.0 0.00 -- 50.0 71.0
10/26/2019 11:00 1294.27 90.0 0.00 -- 51.8 89.0
10/26/2019 10:00 1294.29 91.0 0.00 -- 52.3 100.0
10/26/2019 09:00 1294.29 91.0 0.00 -- 51.1 100.0
10/26/2019 08:00 1294.29 92.0 0.00 -- 47.3 100.0
10/26/2019 07:00 1294.28 92.0 0.00 -- 44.3 100.0
10/26/2019 06:00 1294.27 93.0 0.00 -- 41.7 100.0
10/26/2019 05:00 1294.28 92.0 0.00 -- 40.9 100.0
10/26/2019 04:00 1294.31 92.0 0.00 -- 39.9 100.0
10/26/2019 03:00 1294.29 93.0 0.00 -- 37.6 100.0
10/26/2019 02:00 1294.31 93.0 0.00 -- 40.0 100.0
10/26/2019 01:00 1294.31 93.0 0.00 -- 42.2 100.0
10/26/2019 00:00 1294.31 94.0 0.00 0.00 42.4 100.0
10/25/2019 23:00 1294.32 94.0 0.00 -- 42.2 100.0
10/25/2019 22:00 1294.32 94.0 0.00 -- 42.2 93.0
10/25/2019 21:00 1294.32 94.0 0.00 -- 42.5 80.0
10/25/2019 20:00 1294.33 94.0 0.00 -- 43.0 78.0
10/25/2019 19:00 1294.34 95.0 0.01 -- 43.7 76.0
10/25/2019 18:00 1294.34 95.0 0.01 -- 44.3 71.0
10/25/2019 17:00 1294.34 96.0 0.00 -- 45.1 65.0
10/25/2019 16:00 1294.34 95.0 0.00 -- 46.3 47.0
10/25/2019 15:00 1294.36 96.0 0.00 -- 47.2 54.0
10/25/2019 14:00 1294.36 96.0 0.00 -- 48.2 58.0
10/25/2019 13:00 1294.36 96.0 0.00 -- 49.9 64.0
10/25/2019 12:00 1294.36 97.0 0.00 -- 51.0 67.0
10/25/2019 11:00 1294.37 97.0 0.00 -- 53.6 83.0
10/25/2019 10:00 1294.37 97.0 0.00 -- 53.3 95.0
10/25/2019 09:00 1294.38 98.0 0.00 -- 51.1 99.0
10/25/2019 08:00 1294.39 98.0 0.00 -- 50.2 96.0
10/25/2019 07:00 1294.39 98.0 0.00 -- 48.7 96.0
10/25/2019 06:00 1294.40 98.0 0.00 -- 45.4 95.0
10/25/2019 05:00 1294.40 99.0 0.00 -- 41.8 91.0
10/25/2019 04:00 1294.40 99.0 0.00 -- 41.4 88.0
10/25/2019 03:00 1294.40 99.0 0.00 -- 40.1 85.0
10/25/2019 02:00 1294.42 99.0 0.00 -- 40.4 80.0
10/25/2019 01:00 1294.43 100.0 0.00 -- 40.3 79.0
10/25/2019 00:00 1294.43 101.0 0.00 0.02 40.0 72.0
10/24/2019 23:00 1294.43 101.0 0.00 -- 40.3 54.0
10/24/2019 22:00 1294.44 101.0 0.00 -- 40.6 54.0
10/24/2019 21:00 1294.45 101.0 0.00 -- 41.0 59.0
10/24/2019 20:00 1294.44 102.0 0.00 -- 41.7 52.0
10/24/2019 19:00 1294.47 104.0 0.00 -- 56.6 38.0
10/24/2019 18:00 1294.45 103.0 0.00 -- 58.5 39.0
10/24/2019 17:00 1294.45 102.0 0.00 -- 60.0 35.0
10/24/2019 16:00 1294.45 101.0 0.00 -- 60.2 33.0
10/24/2019 15:00 1294.46 102.0 0.00 -- 60.8 33.0
10/24/2019 14:00 1294.47 103.0 0.00 -- 56.8 39.0
10/24/2019 13:00 1294.48 103.0 0.00 -- 52.4 43.0
10/24/2019 12:00 1294.47 104.0 0.00 -- 49.5 49.0
10/24/2019 11:00 1294.49 103.0 0.00 -- 47.0 56.0
10/24/2019 10:00 1294.51 106.0 0.00 -- 36.6 99.0
10/24/2019 09:00 1294.53 106.0 0.00 -- 31.8 99.0
10/24/2019 08:00 1294.53 107.0 0.00 -- 31.8 99.0
10/24/2019 07:00 1294.54 108.0 0.00 -- 33.8 94.0
10/24/2019 06:00 1294.54 109.0 0.00 -- 35.3 89.0
10/24/2019 05:00 1294.54 109.0 0.00 -- 37.3 85.0
10/24/2019 04:00 1294.56 108.0 0.00 -- 41.5 70.0
10/24/2019 03:00 1294.57 109.0 0.00 -- 45.7 55.0
10/24/2019 02:00 1294.56 111.0 0.00 -- 46.0 53.0
10/24/2019 01:00 1294.56 110.0 0.00 -- 46.2 54.0
10/24/2019 00:00 1294.58 110.0 0.00 0.00 47.0 55.0
10/23/2019 23:00 1294.59 110.0 0.00 -- 47.1 59.0
10/23/2019 22:00 1294.58 111.0 0.00 -- 40.7 88.0
10/23/2019 21:00 1294.59 111.0 0.00 -- 42.7 79.0
10/23/2019 20:00 1294.59 111.0 0.00 -- 49.5 54.0
10/23/2019 19:00 1294.60 111.0 0.00 -- 51.7 48.0
10/23/2019 18:00 1294.60 113.0 0.00 -- 53.9 49.0
10/23/2019 17:00 1294.59 113.0 0.00 -- 55.0 46.0
10/23/2019 16:00 1294.61 113.0 0.00 -- 54.8 48.0
10/23/2019 15:00 1294.62 112.0 0.00 -- 56.8 46.0
10/23/2019 14:00 1294.63 112.0 0.00 -- 54.1 61.0
10/23/2019 13:00 1294.63 113.0 0.00 -- 54.8 67.0
10/23/2019 12:00 1294.65 114.0 0.00 -- 52.2 90.0
10/23/2019 11:00 1294.66 114.0 0.00 -- 50.3 99.0
10/23/2019 10:00 1294.65 115.0 0.00 -- 49.0 100.0
10/23/2019 09:00 1294.65 66.0 0.00 -- 48.5 100.0
10/23/2019 08:00 1294.65 67.0 0.00 -- 48.2 100.0
10/23/2019 07:00 1294.65 65.0 0.00 -- 48.0 100.0
10/23/2019 06:00 1294.65 66.0 0.00 -- 47.9 100.0
10/23/2019 05:00 1294.65 66.0 0.00 -- 48.0 100.0
10/23/2019 04:00 1294.64 66.0 0.00 -- 48.2 100.0
10/23/2019 03:00 1294.64 65.0 0.00 -- 48.3 100.0
10/23/2019 02:00 1294.63 65.0 0.00 -- 48.0 100.0
10/23/2019 01:00 1294.61 65.0 0.01 -- 47.5 100.0
10/23/2019 00:00 1294.61 64.0 0.01 0.01 47.2 100.0
10/22/2019 23:00 1294.62 63.0 0.00 -- 46.9 100.0
10/22/2019 22:00 1294.61 64.0 0.00 -- 46.7 100.0
10/22/2019 21:00 1294.61 64.0 0.00 -- 46.4 100.0
10/22/2019 20:00 1294.62 64.0 0.00 -- 46.5 100.0
10/22/2019 19:00 1294.62 64.0 0.00 -- 47.1 100.0
10/22/2019 18:00 1294.62 64.0 0.00 -- 49.0 88.0
10/22/2019 17:00 1294.63 64.0 0.00 -- 49.9 81.0
10/22/2019 16:00 1294.62 64.0 0.00 -- 50.7 76.0
10/22/2019 15:00 1294.63 65.0 0.00 -- 51.7 69.0
10/22/2019 14:00 1294.63 65.0 0.00 -- 52.1 66.0
10/22/2019 13:00 1294.63 65.0 0.00 -- 52.9 61.0
10/22/2019 12:00 1294.64 65.0 0.00 -- 50.7 71.0
10/22/2019 11:00 1294.64 66.0 0.00 -- 48.0 84.0
10/22/2019 10:00 1294.65 66.0 0.00 -- 44.5 99.0
10/22/2019 09:00 1294.65 67.0 0.00 -- 42.1 100.0
10/22/2019 08:00 1294.65 66.0 0.00 -- 40.4 100.0
10/22/2019 07:00 1294.66 66.0 0.00 -- 40.7 100.0
10/22/2019 06:00 1294.66 67.0 0.00 -- 38.9 100.0
10/22/2019 05:00 1294.67 67.0 0.00 -- 38.7 100.0
10/22/2019 04:00 1294.68 67.0 0.00 -- 37.6 100.0
10/22/2019 03:00 1294.68 67.0 0.00 -- 37.1 100.0
10/22/2019 02:00 1294.68 68.0 0.00 -- 36.3 100.0
10/22/2019 01:00 1294.68 68.0 0.00 -- 36.6 100.0
10/22/2019 00:00 1294.69 68.0 0.00 0.01 37.8 100.0
10/21/2019 23:00 1294.69 68.0 0.00 -- 40.2 100.0
10/21/2019 22:00 1294.69 68.0 0.00 -- 40.9 100.0
10/21/2019 21:00 1294.69 68.0 0.00 -- 43.5 99.0
10/21/2019 20:00 1294.70 69.0 0.00 -- 46.5 99.0
10/21/2019 19:00 1294.70 68.0 0.00 -- 50.1 86.0
10/21/2019 18:00 1294.71 69.0 0.00 -- 54.3 71.0
10/21/2019 17:00 1294.72 69.0 0.00 -- 57.5 62.0
10/21/2019 16:00 1294.72 69.0 0.00 -- 59.2 56.0
10/21/2019 15:00 1294.72 70.0 0.00 -- 59.3 56.0
10/21/2019 14:00 1294.73 70.0 0.00 -- 56.7 62.0
10/21/2019 13:00 1294.74 71.0 0.00 -- 51.7 81.0
10/21/2019 12:00 1294.73 70.0 0.00 -- 47.0 100.0
10/21/2019 11:00 1294.74 71.0 0.00 -- 43.8 100.0
10/21/2019 10:00 1294.74 71.0 0.00 -- 38.8 100.0
10/21/2019 09:00 1294.74 71.0 0.00 -- 35.9 100.0
10/21/2019 08:00 1294.75 71.0 0.00 -- 35.6 100.0
10/21/2019 07:00 1294.76 72.0 0.00 -- 37.9 100.0
10/21/2019 06:00 1294.76 72.0 0.00 -- 38.4 100.0
10/21/2019 05:00 1294.76 72.0 0.00 -- 39.6 100.0
10/21/2019 04:00 1294.77 72.0 0.00 -- 40.7 100.0
10/21/2019 03:00 1294.77 73.0 0.00 -- 41.3 100.0
10/21/2019 02:00 1294.77 73.0 0.00 -- 41.6 100.0
10/21/2019 01:00 1294.77 73.0 0.00 -- 43.0 100.0
10/21/2019 00:00 1294.78 73.0 0.00 0.00 44.0 100.0
10/20/2019 23:00 1294.79 73.0 0.00 -- 44.6 100.0
10/20/2019 22:00 1294.79 74.0 0.00 -- 44.4 100.0
10/20/2019 21:00 1294.79 74.0 0.00 -- 44.6 100.0
10/20/2019 20:00 1294.80 74.0 0.01 -- 44.9 100.0
10/20/2019 19:00 1294.80 75.0 0.00 -- 46.6 91.0
10/20/2019 18:00 1294.80 74.0 0.00 -- 49.5 68.0
10/20/2019 17:00 1294.80 74.0 0.00 -- 51.2 57.0
10/20/2019 16:00 1294.81 74.0 0.00 -- 52.5 57.0
10/20/2019 15:00 1294.82 75.0 0.00 -- 52.7 57.0
10/20/2019 14:00 1294.82 75.0 0.00 -- 50.9 59.0
10/20/2019 13:00 1294.82 76.0 0.00 -- 48.6 64.0
10/20/2019 12:00 1294.83 76.0 0.00 -- 45.1 73.0
10/20/2019 11:00 1294.84 76.0 0.00 -- 40.2 92.0
10/20/2019 10:00 1294.84 77.0 0.00 -- 33.2 99.0
10/20/2019 09:00 1294.85 77.0 0.00 -- 30.0 99.0
10/20/2019 08:00 1294.85 78.0 0.00 -- 29.0 99.0
10/20/2019 07:00 1294.86 78.0 0.00 -- 28.8 99.0
10/20/2019 06:00 1294.87 78.0 0.00 -- 29.1 99.0
10/20/2019 05:00 1294.87 79.0 0.00 -- 29.7 99.0
10/20/2019 04:00 1294.87 79.0 0.00 -- 29.7 99.0
10/20/2019 03:00 1294.88 79.0 0.00 -- 30.9 99.0
10/20/2019 02:00 1294.89 79.0 0.00 -- 31.3 99.0
10/20/2019 01:00 1294.89 80.0 0.00 -- 31.4 99.0
10/20/2019 00:00 1294.89 80.0 0.00 0.01 32.3 99.0
10/19/2019 23:00 1294.90 80.0 0.00 -- 34.7 99.0
10/19/2019 22:00 1294.90 81.0 0.00 -- 35.4 94.0
10/19/2019 21:00 1294.91 81.0 0.00 -- 37.7 91.0
10/19/2019 20:00 1294.91 81.0 0.00 -- 40.1 80.0
10/19/2019 19:00 1294.92 81.0 0.00 -- 45.6 65.0
10/19/2019 18:00 1294.93 82.0 0.00 -- 50.5 44.0
10/19/2019 17:00 1294.95 82.0 0.00 -- 52.1 44.0
10/19/2019 16:00 1294.94 82.0 0.00 -- 53.0 44.0
10/19/2019 15:00 1294.96 82.0 0.00 -- 53.8 39.0
10/19/2019 14:00 1294.96 83.0 0.00 -- 49.6 46.0
10/19/2019 13:00 1294.96 83.0 0.00 -- 45.2 55.0
10/19/2019 12:00 1294.96 84.0 0.00 -- 42.5 58.0
10/19/2019 11:00 1294.99 86.0 0.00 -- 40.2 65.0
10/19/2019 10:00 1294.98 86.0 0.00 -- 37.4 75.0
10/19/2019 09:00 1294.97 85.0 0.00 -- 33.4 94.0
10/19/2019 08:00 1294.98 85.0 0.00 -- 32.5 93.0
10/19/2019 07:00 1294.98 85.0 0.00 -- 33.7 90.0
10/19/2019 06:00 1294.99 86.0 0.00 -- 33.5 91.0
10/19/2019 05:00 1295.00 86.0 0.00 -- 33.7 91.0
10/19/2019 04:00 1295.00 86.0 0.00 -- 36.8 78.0
10/19/2019 03:00 1295.00 86.0 0.00 -- 35.9 84.0
10/19/2019 02:00 1295.01 87.0 0.00 -- 36.2 83.0
10/19/2019 01:00 1295.01 86.0 0.00 -- 38.6 73.0
10/19/2019 00:00 1295.02 87.0 0.00 0.00 39.2 74.0
10/18/2019 23:00 1295.02 88.0 0.00 -- 40.9 75.0
10/18/2019 22:00 1295.02 88.0 0.00 -- 41.2 74.0
10/18/2019 21:00 1295.03 88.0 0.00 -- 41.2 76.0
10/18/2019 20:00 1295.03 88.0 0.00 -- 41.6 73.0
10/18/2019 19:00 1295.02 89.0 0.00 -- 42.9 69.0
10/18/2019 18:00 1295.03 88.0 0.00 -- 44.2 69.0
10/18/2019 17:00 1295.03 90.0 0.00 -- 45.8 64.0
10/18/2019 16:00 1295.06 89.0 0.00 -- 47.4 63.0
10/18/2019 15:00 1295.05 89.0 0.00 -- 47.0 65.0
10/18/2019 14:00 1295.05 89.0 0.00 -- 45.4 68.0
10/18/2019 13:00 1295.04 89.0 0.00 -- 44.5 70.0
10/18/2019 12:00 1295.05 90.0 0.00 -- 43.8 74.0
10/18/2019 11:00 1295.05 89.0 0.00 -- 43.5 75.0
10/18/2019 10:00 1295.04 89.0 0.00 -- 43.1 78.0
10/18/2019 09:00 1295.04 90.0 0.00 -- 42.5 81.0
10/18/2019 08:00 1295.04 89.0 0.00 -- 42.4 83.0
10/18/2019 07:00 1295.03 89.0 0.00 -- 41.8 85.0
10/18/2019 06:00 1295.05 89.0 0.00 -- 42.2 82.0
10/18/2019 05:00 1295.03 89.0 0.00 -- 41.8 81.0
10/18/2019 04:00 1295.03 88.0 0.00 -- 41.8 80.0
10/18/2019 03:00 1295.03 88.0 0.00 -- 41.8 81.0
10/18/2019 02:00 1295.02 87.0 0.00 -- 41.6 82.0
10/18/2019 01:00 1295.00 87.0 0.00 -- 41.2 82.0
10/18/2019 00:00 1295.00 86.0 0.00 0.00 41.0 81.0
10/17/2019 23:00 1295.00 87.0 0.00 -- 41.2 81.0
10/17/2019 22:00 1295.00 87.0 0.00 -- 41.4 84.0
10/17/2019 21:00 1294.98 86.0 0.00 -- 41.3 84.0
10/17/2019 20:00 1294.97 86.0 0.00 -- 41.2 83.0
10/17/2019 19:00 1294.97 84.0 0.00 -- 40.3 87.0
10/17/2019 18:00 1294.97 83.0 0.00 -- 39.6 95.0
10/17/2019 17:00 1294.94 84.0 0.00 -- 39.1 98.0
10/17/2019 16:00 1294.89 82.0 0.00 -- 39.7 98.0
10/17/2019 15:00 1294.86 80.0 0.02 -- 40.2 99.0
10/17/2019 14:00 1294.83 78.0 0.05 -- 39.8 99.0
10/17/2019 13:00 1294.78 75.0 0.05 -- 39.5 99.0
10/17/2019 12:00 1294.75 73.0 0.04 -- 39.4 99.0
10/17/2019 11:00 1294.72 71.0 0.07 -- 40.3 99.0
10/17/2019 10:00 1294.71 69.0 0.04 -- 41.5 100.0
10/17/2019 09:00 1294.67 68.0 0.02 -- 42.5 100.0
10/17/2019 08:00 1294.66 67.0 0.19 -- 45.5 100.0
10/17/2019 07:00 1294.69 65.0 0.22 -- 48.9 100.0
10/17/2019 06:00 1294.64 65.0 0.46 -- 47.6 100.0
10/17/2019 05:00 1294.59 64.0 0.44 -- 47.7 100.0
10/17/2019 04:00 1294.52 62.0 0.44 -- 48.7 100.0
10/17/2019 03:00 1294.48 58.0 0.42 -- 48.6 100.0
10/17/2019 02:00 1294.45 57.0 0.21 -- 47.5 100.0
10/17/2019 01:00 1294.43 55.0 0.08 -- 47.1 100.0
10/17/2019 00:00 1294.42 54.0 0.20 2.75 47.1 100.0
10/16/2019 23:00 1294.39 52.0 0.11 -- 46.3 100.0
10/16/2019 22:00 1294.38 52.0 0.08 -- 45.7 100.0
10/16/2019 21:00 1294.39 51.0 0.10 -- 45.1 100.0
10/16/2019 20:00 1294.36 50.0 0.00 -- 47.2 80.0
10/16/2019 19:00 1294.36 51.0 0.00 -- 48.1 71.0
10/16/2019 18:00 1294.38 50.0 0.00 -- 49.1 65.0
10/16/2019 17:00 1294.38 51.0 0.00 -- 51.2 63.0
10/16/2019 16:00 1294.37 51.0 0.00 -- 53.0 60.0
10/16/2019 15:00 1294.37 51.0 0.00 -- 54.3 58.0
10/16/2019 14:00 1294.38 50.0 0.00 -- 52.9 60.0
10/16/2019 13:00 1294.38 51.0 0.00 -- 53.0 57.0
10/16/2019 12:00 1294.37 51.0 0.00 -- 50.5 63.0
10/16/2019 11:00 1294.39 51.0 0.00 -- 46.8 78.0
10/16/2019 10:00 1294.40 52.0 0.00 -- 36.8 99.0
10/16/2019 09:00 1294.40 52.0 0.00 -- 31.2 99.0
10/16/2019 08:00 1294.40 53.0 0.00 -- 30.0 99.0
10/16/2019 07:00 1294.41 53.0 0.00 -- 30.2 99.0
10/16/2019 06:00 1294.42 53.0 0.00 -- 30.6 99.0
10/16/2019 05:00 1294.41 54.0 0.00 -- 30.4 99.0
10/16/2019 04:00 1294.42 54.0 0.00 -- 31.3 99.0
10/16/2019 03:00 1294.43 54.0 0.00 -- 31.0 99.0
10/16/2019 02:00 1294.43 54.0 0.00 -- 31.9 99.0
10/16/2019 01:00 1294.44 54.0 0.00 -- 33.9 99.0
10/16/2019 00:00 1294.44 54.0 0.00 -- 33.9 95.0
10/15/2019 23:00 1294.44 54.0 0.00 -- 35.7 95.0
10/15/2019 22:00 1294.45 54.0 0.00 -- 37.1 91.0
10/15/2019 21:00 1294.45 55.0 0.00 -- 39.7 81.0
10/15/2019 20:00 1294.45 55.0 0.00 -- 42.7 71.0
10/15/2019 19:00 1294.46 55.0 0.00 -- 48.0 52.0
10/15/2019 18:00 1294.46 56.0 0.00 -- 53.0 36.0
10/15/2019 17:00 1294.46 55.0 0.00 -- 54.0 36.0
10/15/2019 16:00 1294.47 56.0 0.00 -- 55.4 32.0
10/15/2019 15:00 1294.47 56.0 0.00 -- 54.9 33.0
10/15/2019 14:00 1294.47 56.0 0.00 -- 52.4 35.0
10/15/2019 13:00 1294.50 57.0 0.00 -- 49.0 43.0
10/15/2019 12:00 1294.49 57.0 0.00 -- 46.2 56.0
10/15/2019 11:00 1294.50 57.0 0.00 -- 44.2 64.0
10/15/2019 10:00 1294.51 58.0 0.00 -- 39.4 83.0
10/15/2019 09:00 1294.50 58.0 0.00 -- 34.0 96.0
10/15/2019 08:00 1294.51 58.0 0.00 -- 33.7 94.0
10/15/2019 07:00 1294.51 58.0 0.00 -- 35.8 87.0
10/15/2019 06:00 1294.52 59.0 0.00 -- 40.4 76.0
10/15/2019 05:00 1294.54 59.0 0.00 -- 40.3 76.0
10/15/2019 04:00 1294.53 59.0 0.00 -- 40.0 81.0
10/15/2019 03:00 1294.53 59.0 0.00 -- 43.6 71.0
10/15/2019 02:00 1294.54 59.0 0.00 -- 48.0 61.0
10/15/2019 01:00 1294.55 60.0 0.00 -- 49.0 64.0
10/15/2019 00:00 1294.56 60.0 0.00 0.00 52.3 58.0
10/14/2019 23:00 1294.55 61.0 0.00 -- 54.1 54.0
10/14/2019 22:00 1294.57 61.0 0.00 -- 52.4 66.0
10/14/2019 21:00 1294.57 61.0 0.00 -- 50.5 89.0
10/14/2019 20:00 1294.57 61.0 0.00 -- 51.8 84.0
10/14/2019 19:00 1294.57 61.0 0.00 -- 56.0 70.0
10/14/2019 18:00 1294.58 62.0 0.00 -- 61.4 52.0
10/14/2019 17:00 1294.57 62.0 0.00 -- 63.2 47.0
10/14/2019 16:00 1294.58 62.0 0.00 -- 64.4 51.0
10/14/2019 15:00 1294.59 62.0 0.00 -- 64.1 53.0
10/14/2019 14:00 1294.59 62.0 0.00 -- 61.1 61.0
10/14/2019 13:00 1294.58 63.0 0.00 -- 55.6 73.0
10/14/2019 12:00 1294.59 62.0 0.00 -- 55.1 71.0
10/14/2019 11:00 1294.61 0.0 0.00 -- 51.6 67.0
10/14/2019 10:00 1294.62 0.0 0.00 -- 39.9 99.0
10/14/2019 09:00 1294.61 0.0 0.00 -- 34.6 99.0
10/14/2019 08:00 1294.61 0.0 0.00 -- 33.9 99.0
10/14/2019 07:00 1294.61 0.0 0.00 -- 34.2 99.0
10/14/2019 06:00 1294.62 0.0 0.00 -- 34.7 99.0
10/14/2019 05:00 1294.62 0.0 0.00 -- 35.8 99.0
10/14/2019 04:00 1294.61 0.0 0.00 -- 36.3 99.0
10/14/2019 03:00 1294.61 0.0 0.00 -- 35.9 99.0
10/14/2019 02:00 1294.61 0.0 0.00 -- 38.5 99.0
10/14/2019 01:00 1294.62 0.0 0.00 -- 39.5 99.0
10/14/2019 00:00 1294.62 0.0 0.00 0.00 41.7 92.0
10/13/2019 23:00 1294.62 0.0 0.00 -- 43.1 90.0
10/13/2019 22:00 1294.61 0.0 0.00 -- 44.0 90.0
10/13/2019 21:00 1294.61 0.0 0.00 -- 44.8 84.0
10/13/2019 20:00 1294.61 0.0 0.00 -- 47.1 74.0
10/13/2019 19:00 1294.61 0.0 0.00 -- 51.7 63.0
10/13/2019 18:00 1294.61 0.0 0.00 -- 57.2 46.0
10/13/2019 17:00 1294.61 0.0 0.00 -- 60.5 37.0
10/13/2019 16:00 1294.62 0.0 0.00 -- 64.8 28.0
10/13/2019 15:00 1294.62 0.0 0.00 -- 61.3 42.0
10/13/2019 14:00 1294.61 0.0 0.00 -- 58.1 50.0
10/13/2019 13:00 1294.62 0.0 0.00 -- 54.5 61.0
10/13/2019 12:00 1294.63 0.0 0.00 -- 52.6 64.0
10/13/2019 11:00 1294.63 0.0 0.00 -- 49.5 73.0
10/13/2019 10:00 1294.62 0.0 0.00 -- 47.7 75.0
10/13/2019 09:00 1294.61 0.0 0.00 -- 45.4 85.0
10/13/2019 08:00 1294.62 0.0 0.00 -- 45.1 99.0
10/13/2019 07:00 1294.61 0.0 0.00 -- 47.5 99.0
10/13/2019 06:00 1294.62 0.0 0.00 -- 47.8 99.0
10/13/2019 05:00 1294.61 0.0 0.00 -- 47.8 99.0
10/13/2019 04:00 1294.61 0.0 0.00 -- 49.0 99.0
10/13/2019 03:00 1294.61 0.0 0.00 -- 49.3 99.0
10/13/2019 02:00 1294.61 0.0 0.00 -- 47.0 100.0
10/13/2019 01:00 1294.61 0.0 0.00 -- 45.2 100.0
10/13/2019 00:00 1294.61 0.0 0.00 0.00 44.8 100.0
10/12/2019 23:00 1294.62 0.0 0.00 -- 44.4 100.0
10/12/2019 22:00 1294.61 0.0 0.00 -- 45.0 100.0
10/12/2019 21:00 1294.61 0.0 0.00 -- 46.2 99.0
10/12/2019 20:00 1294.61 0.0 0.00 -- 48.6 99.0
10/12/2019 19:00 1294.62 0.0 0.00 -- 52.0 89.0
10/12/2019 18:00 1294.61 0.0 0.00 -- 55.0 76.0
10/12/2019 17:00 1294.62 0.0 0.00 -- 55.3 77.0
10/12/2019 16:00 1294.62 0.0 0.00 -- 54.6 73.0
10/12/2019 15:00 1294.62 0.0 0.00 -- 52.7 77.0
10/12/2019 14:00 1294.62 0.0 0.00 -- 50.9 84.0
10/12/2019 13:00 1294.62 0.0 0.00 -- 49.7 89.0
10/12/2019 12:00 1294.62 0.0 0.00 -- 48.4 95.0
10/12/2019 11:00 1294.62 0.0 0.00 -- 48.1 99.0
10/12/2019 10:00 1294.63 0.0 0.00 -- 46.7 100.0
10/12/2019 09:00 1294.62 0.0 0.00 -- 45.5 100.0
10/12/2019 08:00 1294.62 0.0 0.00 -- 45.5 99.0
10/12/2019 07:00 1294.63 0.0 0.00 -- 45.4 99.0
10/12/2019 06:00 1294.62 0.0 0.00 -- 45.3 99.0
10/12/2019 05:00 1294.62 0.0 0.00 -- 45.7 99.0
10/12/2019 04:00 1294.63 0.0 0.00 -- 47.2 81.0
10/12/2019 03:00 1294.62 0.0 0.00 -- 47.8 76.0
10/12/2019 02:00 1294.62 0.0 0.00 -- 48.1 76.0
10/12/2019 01:00 1294.63 0.0 0.00 -- 48.2 72.0
10/12/2019 00:00 1294.63 0.0 0.00 0.00 48.7 64.0
10/11/2019 23:00 1294.63 0.0 0.00 -- 49.5 58.0
10/11/2019 22:00 1294.62 0.0 0.00 -- 49.8 60.0
10/11/2019 21:00 1294.63 0.0 0.00 -- 50.2 54.0
10/11/2019 20:00 1294.64 0.0 0.00 -- 50.7 52.0
10/11/2019 19:00 1294.63 0.0 0.00 -- 51.4 50.0
10/11/2019 18:00 1294.64 0.0 0.00 -- 52.4 46.0
10/11/2019 17:00 1294.64 0.0 0.00 -- 53.8 47.0
10/11/2019 16:00 1294.63 0.0 0.00 -- 54.7 42.0
10/11/2019 15:00 1294.66 0.0 0.00 -- 57.0 41.0
10/11/2019 14:00 1294.66 1.0 0.00 -- 57.4 41.0
10/11/2019 13:00 1294.65 0.0 0.00 -- 53.9 49.0
10/11/2019 12:00 1294.63 0.0 0.00 -- 52.3 45.0
10/11/2019 11:00 1294.65 0.0 0.00 -- 49.5 50.0
10/11/2019 10:00 1294.64 0.0 0.00 -- 47.1 58.0
10/11/2019 09:00 1294.64 0.0 0.00 -- 44.0 65.0
10/11/2019 08:00 1294.63 0.0 0.00 -- 43.6 70.0
10/11/2019 07:00 1294.64 0.0 0.00 -- 43.9 70.0
10/11/2019 06:00 1294.63 0.0 0.00 -- 43.2 71.0
10/11/2019 05:00 1294.63 0.0 0.00 -- 44.3 70.0
10/11/2019 04:00 1294.65 0.0 0.00 -- 46.3 64.0
10/11/2019 03:00 1294.65 0.0 0.00 -- 48.0 59.0
10/11/2019 02:00 1294.64 0.0 0.00 -- 48.3 58.0
10/11/2019 01:00 1294.64 0.0 0.00 -- 48.0 58.0
10/11/2019 00:00 1294.65 0.0 0.00 0.00 47.6 56.0
10/10/2019 23:00 1294.64 0.0 0.00 -- 48.2 56.0
10/10/2019 22:00 1294.64 0.0 0.00 -- 47.8 51.0
10/10/2019 21:00 1294.63 0.0 0.00 -- 47.1 61.0
10/10/2019 20:00 1294.63 0.0 0.00 -- 49.3 59.0
10/10/2019 19:00 1294.64 0.0 0.00 -- 50.5 51.0
10/10/2019 18:00 1294.65 0.0 0.00 -- 52.4 52.0
10/10/2019 17:00 1294.64 0.0 0.00 -- 54.3 48.0
10/10/2019 16:00 1294.67 0.0 0.00 -- 55.4 40.0
10/10/2019 15:00 1294.67 0.0 0.00 -- 53.6 44.0
10/10/2019 14:00 1294.67 1.0 0.00 -- 53.3 48.0
10/10/2019 13:00 1294.67 0.0 0.00 -- 52.0 50.0
10/10/2019 12:00 -- -- -- -- 50.4 57.0
10/10/2019 11:00 -- -- -- -- 50.0 57.0
10/10/2019 10:00 -- -- -- -- 47.4 71.0
10/10/2019 09:00 -- -- -- -- 42.2 84.0
10/10/2019 08:00 -- -- -- -- 41.0 89.0
10/10/2019 07:00 -- -- -- -- 42.7 84.0
10/10/2019 06:00 -- -- -- -- 43.4 82.0
10/10/2019 05:00 -- -- -- -- 44.4 80.0
10/10/2019 04:00 -- -- -- -- 46.0 77.0
10/10/2019 03:00 -- -- -- -- 47.1 72.0
10/10/2019 02:00 -- -- -- -- 47.8 74.0
10/10/2019 01:00 -- -- -- -- 47.9 73.0
10/10/2019 00:00 -- -- -- 0.00 47.0 75.0